2016 Cux-Wetter.de -Die Nutzung der Wetterdaten nur mit ausdrcklicher Genehmigung
Wetterdaten: Sonntag, 15.07.2018
Datum Zeit Temp. A. Feuchte A. Luftdruck Regen Wind Richtung Richtung Sonnenschein Solar Taupunkt Windchill Windben
15.07.2018 00:00 14,7 C 88 % 1018,5 hPa 0,0 l/m 2,5 km/h (1 Bft) N-NW 332 0 min 0 W/m 12,7 C 14,7 C 6,4 km/h (2 Bft)
15.07.2018 00:03 14,7 C 88 % 1018,5 hPa 0,0 l/m 3,1 km/h (1 Bft) N-NW 331 0 min 0 W/m 12,7 C 14,7 C 6,4 km/h (2 Bft)
15.07.2018 00:06 14,7 C 88 % 1018,5 hPa 0,0 l/m 2,1 km/h (1 Bft) N-NW 331 0 min 0 W/m 12,7 C 14,7 C 6,4 km/h (2 Bft)
15.07.2018 00:09 14,7 C 88 % 1018,5 hPa 0,0 l/m 3,2 km/h (1 Bft) N-NW 331 0 min 0 W/m 12,7 C 14,7 C 6,4 km/h (2 Bft)
15.07.2018 00:12 14,7 C 88 % 1018,4 hPa 0,0 l/m 4,8 km/h (1 Bft) N-NW 338 0 min 0 W/m 12,7 C 14,7 C 8,0 km/h (2 Bft)
15.07.2018 00:15 14,7 C 88 % 1018,4 hPa 0,0 l/m 3,6 km/h (1 Bft) N-NW 340 0 min 0 W/m 12,7 C 14,7 C 6,4 km/h (2 Bft)
15.07.2018 00:18 14,7 C 88 % 1018,4 hPa 0,0 l/m 4,6 km/h (1 Bft) N-NW 343 0 min 0 W/m 12,7 C 14,7 C 8,0 km/h (2 Bft)
15.07.2018 00:21 14,7 C 88 % 1018,4 hPa 0,0 l/m 3,3 km/h (1 Bft) N-NW 342 0 min 0 W/m 12,7 C 14,7 C 6,4 km/h (2 Bft)
15.07.2018 00:24 14,7 C 88 % 1018,4 hPa 0,0 l/m 4,1 km/h (1 Bft) N-NW 328 0 min 0 W/m 12,7 C 14,7 C 8,0 km/h (2 Bft)
15.07.2018 00:27 14,8 C 88 % 1018,4 hPa 0,0 l/m 4,9 km/h (1 Bft) N-NW 339 0 min 0 W/m 12,8 C 14,8 C 9,7 km/h (2 Bft)
15.07.2018 00:30 14,8 C 88 % 1018,4 hPa 0,0 l/m 3,6 km/h (1 Bft) N-NW 336 0 min 0 W/m 12,8 C 14,8 C 6,4 km/h (2 Bft)
15.07.2018 00:33 14,9 C 88 % 1018,4 hPa 0,0 l/m 4,6 km/h (1 Bft) N-NW 338 0 min 0 W/m 12,9 C 14,9 C 9,7 km/h (2 Bft)
15.07.2018 00:36 15,1 C 88 % 1018,3 hPa 0,0 l/m 5,9 km/h (2 Bft) N 355 0 min 0 W/m 13,1 C 15,1 C 12,9 km/h (3 Bft)
15.07.2018 00:39 15,2 C 88 % 1018,3 hPa 0,0 l/m 5,2 km/h (1 Bft) N-NW 335 0 min 0 W/m 13,2 C 15,2 C 9,7 km/h (2 Bft)
15.07.2018 00:42 15,2 C 88 % 1018,3 hPa 0,0 l/m 4,3 km/h (1 Bft) N-NW 346 0 min 0 W/m 13,2 C 15,2 C 8,0 km/h (2 Bft)
15.07.2018 00:45 15,2 C 88 % 1018,3 hPa 0,0 l/m 4,5 km/h (1 Bft) N-NW 348 0 min 0 W/m 13,2 C 15,2 C 8,0 km/h (2 Bft)
15.07.2018 00:48 15,2 C 88 % 1018,3 hPa 0,0 l/m 3,7 km/h (1 Bft) N-NW 346 0 min 0 W/m 13,2 C 15,2 C 8,0 km/h (2 Bft)
15.07.2018 00:51 15,1 C 88 % 1018,3 hPa 0,0 l/m 4,2 km/h (1 Bft) N 355 0 min 0 W/m 13,1 C 15,1 C 9,7 km/h (2 Bft)
15.07.2018 00:54 15,1 C 88 % 1018,2 hPa 0,0 l/m 4,4 km/h (1 Bft) N-NW 330 0 min 0 W/m 13,1 C 15,1 C 9,7 km/h (2 Bft)
15.07.2018 00:57 15,1 C 88 % 1018,2 hPa 0,0 l/m 4,6 km/h (1 Bft) N 349 0 min 0 W/m 13,1 C 15,1 C 9,7 km/h (2 Bft)
15.07.2018 01:00 15,1 C 88 % 1018,2 hPa 0,0 l/m 4,5 km/h (1 Bft) N-NW 345 0 min 0 W/m 13,1 C 15,1 C 9,7 km/h (2 Bft)
15.07.2018 01:03 15,1 C 88 % 1018,2 hPa 0,0 l/m 3,6 km/h (1 Bft) N-NW 343 0 min 0 W/m 13,1 C 15,1 C 6,4 km/h (2 Bft)
15.07.2018 01:06 15,2 C 88 % 1018,2 hPa 0,0 l/m 3,0 km/h (1 Bft) N-NW 346 0 min 0 W/m 13,2 C 15,2 C 4,8 km/h (1 Bft)
15.07.2018 01:09 15,2 C 88 % 1018,2 hPa 0,0 l/m 3,8 km/h (1 Bft) N-NW 344 0 min 0 W/m 13,2 C 15,2 C 8,0 km/h (2 Bft)
15.07.2018 01:12 15,2 C 88 % 1018,2 hPa 0,0 l/m 3,9 km/h (1 Bft) N-NW 342 0 min 0 W/m 13,2 C 15,2 C 6,4 km/h (2 Bft)
15.07.2018 01:15 15,2 C 88 % 1018,2 hPa 0,0 l/m 2,7 km/h (1 Bft) N-NW 342 0 min 0 W/m 13,2 C 15,2 C 4,8 km/h (1 Bft)
15.07.2018 01:18 15,1 C 88 % 1018,2 hPa 0,0 l/m 3,5 km/h (1 Bft) N-NW 330 0 min 0 W/m 13,1 C 15,1 C 8,0 km/h (2 Bft)
15.07.2018 01:21 15,0 C 88 % 1018,2 hPa 0,0 l/m 3,5 km/h (1 Bft) NW 319 0 min 0 W/m 13,0 C 15,0 C 9,7 km/h (2 Bft)
15.07.2018 01:24 14,9 C 88 % 1018,2 hPa 0,0 l/m 2,3 km/h (1 Bft) NW 319 0 min 0 W/m 12,9 C 14,9 C 3,2 km/h (1 Bft)
15.07.2018 01:27 14,9 C 88 % 1018,2 hPa 0,0 l/m 4,1 km/h (1 Bft) N-NW 333 0 min 0 W/m 12,9 C 14,9 C 8,0 km/h (2 Bft)
15.07.2018 01:30 14,9 C 89 % 1018,2 hPa 0,0 l/m 3,8 km/h (1 Bft) N-NW 342 0 min 0 W/m 13,1 C 14,9 C 6,4 km/h (2 Bft)
15.07.2018 01:33 14,9 C 89 % 1018,2 hPa 0,0 l/m 5,6 km/h (2 Bft) NW 325 0 min 0 W/m 13,1 C 14,9 C 9,7 km/h (2 Bft)
15.07.2018 01:36 14,9 C 89 % 1018,2 hPa 0,0 l/m 2,7 km/h (1 Bft) NW 325 0 min 0 W/m 13,1 C 14,9 C 4,8 km/h (1 Bft)
15.07.2018 01:39 14,9 C 89 % 1018,2 hPa 0,0 l/m 1,0 km/h (0 Bft) NW 325 0 min 0 W/m 13,1 C 14,9 C 3,2 km/h (1 Bft)
15.07.2018 01:42 14,8 C 89 % 1018,2 hPa 0,0 l/m 1,8 km/h (1 Bft) N 355 0 min 0 W/m 13,0 C 14,8 C 6,4 km/h (2 Bft)
15.07.2018 01:45 14,8 C 89 % 1018,2 hPa 0,0 l/m 2,2 km/h (1 Bft) N 355 0 min 0 W/m 13,0 C 14,8 C 4,8 km/h (1 Bft)
15.07.2018 01:48 14,8 C 89 % 1018,2 hPa 0,0 l/m 1,0 km/h (0 Bft) N 355 0 min 0 W/m 13,0 C 14,8 C 3,2 km/h (1 Bft)
15.07.2018 01:51 14,7 C 89 % 1018,1 hPa 0,0 l/m 2,2 km/h (1 Bft) N-NW 336 0 min 0 W/m 12,9 C 14,7 C 6,4 km/h (2 Bft)
15.07.2018 01:54 14,7 C 89 % 1018,1 hPa 0,0 l/m 0,6 km/h (0 Bft) N-NW 336 0 min 0 W/m 12,9 C 14,7 C 3,2 km/h (1 Bft)
15.07.2018 01:57 14,6 C 90 % 1018,1 hPa 0,0 l/m 2,2 km/h (1 Bft) N-NW 336 0 min 0 W/m 13,0 C 14,6 C 4,8 km/h (1 Bft)
15.07.2018 02:00 14,6 C 89 % 1018,1 hPa 0,0 l/m 1,5 km/h (1 Bft) N-NW 336 0 min 0 W/m 12,8 C 14,6 C 3,2 km/h (1 Bft)
15.07.2018 02:03 14,6 C 90 % 1018,0 hPa 0,0 l/m 0,3 km/h (0 Bft) N-NW 336 0 min 0 W/m 13,0 C 14,6 C 1,6 km/h (1 Bft)
15.07.2018 02:06 14,5 C 90 % 1018,0 hPa 0,0 l/m 0,7 km/h (0 Bft) N-NW 336 0 min 0 W/m 12,9 C 14,5 C 1,6 km/h (1 Bft)
15.07.2018 02:09 14,4 C 90 % 1018,0 hPa 0,0 l/m 0,4 km/h (0 Bft) N-NW 336 0 min 0 W/m 12,8 C 14,4 C 1,6 km/h (1 Bft)
15.07.2018 02:12 14,4 C 90 % 1017,9 hPa 0,0 l/m 0,1 km/h (0 Bft) N-NW 336 0 min 0 W/m 12,8 C 14,4 C 1,6 km/h (1 Bft)
15.07.2018 02:15 14,4 C 90 % 1018,0 hPa 0,0 l/m 0,2 km/h (0 Bft) N-NW 336 0 min 0 W/m 12,8 C 14,4 C 1,6 km/h (1 Bft)
15.07.2018 02:18 14,3 C 90 % 1017,9 hPa 0,0 l/m 0,3 km/h (0 Bft) N-NW 336 0 min 0 W/m 12,7 C 14,3 C 3,2 km/h (1 Bft)
15.07.2018 02:21 14,3 C 91 % 1017,9 hPa 0,0 l/m 1,0 km/h (0 Bft) N-NW 336 0 min 0 W/m 12,8 C 14,3 C 4,8 km/h (1 Bft)
15.07.2018 02:24 14,3 C 90 % 1018,0 hPa 0,0 l/m 1,9 km/h (1 Bft) N-NW 336 0 min 0 W/m 12,7 C 14,3 C 3,2 km/h (1 Bft)
15.07.2018 02:27 14,3 C 91 % 1018,0 hPa 0,0 l/m 0,6 km/h (0 Bft) N-NW 336 0 min 0 W/m 12,8 C 14,3 C 3,2 km/h (1 Bft)
15.07.2018 02:30 14,3 C 91 % 1017,9 hPa 0,0 l/m 0,0 km/h (0 Bft) N-NW 336 0 min 0 W/m 12,8 C 14,3 C 0,0 km/h (0 Bft)
15.07.2018 02:33 14,2 C 91 % 1017,9 hPa 0,0 l/m 0,0 km/h (0 Bft) N-NW 336 0 min 0 W/m 12,8 C 14,2 C 0,0 km/h (0 Bft)
15.07.2018 02:36 14,2 C 91 % 1017,9 hPa 0,0 l/m 0,0 km/h (0 Bft) N-NW 336 0 min 0 W/m 12,8 C 14,2 C 0,0 km/h (0 Bft)
15.07.2018 02:39 14,1 C 91 % 1017,9 hPa 0,0 l/m 0,0 km/h (0 Bft) N-NW 336 0 min 0 W/m 12,7 C 14,1 C 0,0 km/h (0 Bft)
15.07.2018 02:42 13,9 C 90 % 1017,9 hPa 0,0 l/m 0,0 km/h (0 Bft) N-NW 336 0 min 0 W/m 12,3 C 13,9 C 0,0 km/h (0 Bft)
15.07.2018 02:45 13,6 C 90 % 1018,0 hPa 0,0 l/m 0,0 km/h (0 Bft) N-NW 336 0 min 0 W/m 12,0 C 13,6 C 0,0 km/h (0 Bft)
15.07.2018 02:48 13,4 C 90 % 1017,9 hPa 0,0 l/m 0,0 km/h (0 Bft) N-NW 336 0 min 0 W/m 11,8 C 13,4 C 0,0 km/h (0 Bft)
15.07.2018 02:51 13,3 C 90 % 1017,9 hPa 0,0 l/m 0,0 km/h (0 Bft) N-NW 336 0 min 0 W/m 11,7 C 13,3 C 0,0 km/h (0 Bft)
15.07.2018 02:54 13,2 C 91 % 1017,9 hPa 0,0 l/m 0,0 km/h (0 Bft) N-NW 336 0 min 0 W/m 11,8 C 13,2 C 0,0 km/h (0 Bft)
15.07.2018 02:57 13,1 C 91 % 1017,9 hPa 0,0 l/m 0,0 km/h (0 Bft) N-NW 336 0 min 0 W/m 11,7 C 13,1 C 0,0 km/h (0 Bft)
15.07.2018 03:00 13,1 C 91 % 1018,0 hPa 0,0 l/m 0,0 km/h (0 Bft) N-NW 336 0 min 0 W/m 11,7 C 13,1 C 0,0 km/h (0 Bft)
15.07.2018 03:03 13,0 C 91 % 1018,0 hPa 0,0 l/m 0,0 km/h (0 Bft) N-NW 336 0 min 0 W/m 11,6 C 13,0 C 0,0 km/h (0 Bft)
15.07.2018 03:06 12,9 C 91 % 1018,0 hPa 0,0 l/m 0,0 km/h (0 Bft) N-NW 336 0 min 0 W/m 11,5 C 12,9 C 0,0 km/h (0 Bft)
15.07.2018 03:09 12,8 C 91 % 1018,0 hPa 0,0 l/m 0,0 km/h (0 Bft) N-NW 336 0 min 0 W/m 11,4 C 12,8 C 0,0 km/h (0 Bft)
15.07.2018 03:12 12,8 C 91 % 1017,9 hPa 0,0 l/m 0,0 km/h (0 Bft) N-NW 336 0 min 0 W/m 11,4 C 12,8 C 0,0 km/h (0 Bft)
15.07.2018 03:15 12,7 C 91 % 1018,0 hPa 0,0 l/m 0,0 km/h (0 Bft) N-NW 336 0 min 0 W/m 11,3 C 12,7 C 0,0 km/h (0 Bft)
15.07.2018 03:18 12,7 C 92 % 1017,9 hPa 0,0 l/m 0,0 km/h (0 Bft) N-NW 336 0 min 0 W/m 11,4 C 12,7 C 0,0 km/h (0 Bft)
15.07.2018 03:21 12,7 C 92 % 1018,0 hPa 0,0 l/m 0,0 km/h (0 Bft) N-NW 336 0 min 0 W/m 11,4 C 12,7 C 0,0 km/h (0 Bft)
15.07.2018 03:24 12,6 C 92 % 1017,9 hPa 0,0 l/m 0,0 km/h (0 Bft) N-NW 336 0 min 0 W/m 11,3 C 12,6 C 0,0 km/h (0 Bft)
15.07.2018 03:27 12,5 C 91 % 1017,9 hPa 0,0 l/m 0,0 km/h (0 Bft) N-NW 336 0 min 0 W/m 11,1 C 12,5 C 0,0 km/h (0 Bft)
15.07.2018 03:30 12,4 C 91 % 1017,9 hPa 0,0 l/m 0,0 km/h (0 Bft) N-NW 336 0 min 0 W/m 11,0 C 12,4 C 0,0 km/h (0 Bft)
15.07.2018 03:33 12,3 C 91 % 1017,9 hPa 0,0 l/m 0,0 km/h (0 Bft) N-NW 336 0 min 0 W/m 10,9 C 12,3 C 0,0 km/h (0 Bft)
15.07.2018 03:36 12,1 C 91 % 1017,9 hPa 0,0 l/m 0,0 km/h (0 Bft) N-NW 336 0 min 0 W/m 10,7 C 12,1 C 0,0 km/h (0 Bft)
15.07.2018 03:39 12,0 C 92 % 1018,0 hPa 0,0 l/m 0,0 km/h (0 Bft) N-NW 336 0 min 0 W/m 10,7 C 12,0 C 0,0 km/h (0 Bft)
15.07.2018 03:42 12,0 C 92 % 1017,9 hPa 0,0 l/m 0,0 km/h (0 Bft) N-NW 336 0 min 0 W/m 10,7 C 12,0 C 0,0 km/h (0 Bft)
15.07.2018 03:45 12,1 C 92 % 1017,8 hPa 0,0 l/m 0,0 km/h (0 Bft) N-NW 336 0 min 0 W/m 10,8 C 12,1 C 0,0 km/h (0 Bft)
15.07.2018 03:48 12,1 C 92 % 1017,9 hPa 0,0 l/m 0,0 km/h (0 Bft) N-NW 336 0 min 0 W/m 10,8 C 12,1 C 0,0 km/h (0 Bft)
15.07.2018 03:51 12,1 C 92 % 1017,9 hPa 0,0 l/m 0,0 km/h (0 Bft) N-NW 336 0 min 0 W/m 10,8 C 12,1 C 0,0 km/h (0 Bft)
15.07.2018 03:54 11,9 C 92 % 1017,9 hPa 0,0 l/m 0,0 km/h (0 Bft) N-NW 336 0 min 0 W/m 10,6 C 11,9 C 0,0 km/h (0 Bft)
15.07.2018 03:57 11,9 C 92 % 1017,9 hPa 0,0 l/m 0,0 km/h (0 Bft) N-NW 336 0 min 0 W/m 10,6 C 11,9 C 0,0 km/h (0 Bft)
15.07.2018 04:00 11,9 C 92 % 1017,9 hPa 0,0 l/m 0,0 km/h (0 Bft) N-NW 336 0 min 0 W/m 10,6 C 11,9 C 0,0 km/h (0 Bft)
15.07.2018 04:03 11,8 C 92 % 1017,9 hPa 0,0 l/m 0,1 km/h (0 Bft) N-NW 336 0 min 0 W/m 10,5 C 11,8 C 1,6 km/h (1 Bft)
15.07.2018 04:06 11,7 C 92 % 1017,9 hPa 0,0 l/m 0,1 km/h (0 Bft) N-NW 336 0 min 0 W/m 10,4 C 11,7 C 1,6 km/h (1 Bft)
15.07.2018 04:09 11,5 C 92 % 1017,9 hPa 0,0 l/m 0,4 km/h (0 Bft) N-NW 336 0 min 0 W/m 10,2 C 11,5 C 1,6 km/h (1 Bft)
15.07.2018 04:12 11,4 C 93 % 1017,8 hPa 0,0 l/m 0,4 km/h (0 Bft) N-NW 336 0 min 0 W/m 10,3 C 11,4 C 1,6 km/h (1 Bft)
15.07.2018 04:15 11,5 C 93 % 1017,8 hPa 0,0 l/m 0,0 km/h (0 Bft) N-NW 336 0 min 0 W/m 10,4 C 11,5 C 0,0 km/h (0 Bft)
15.07.2018 04:18 11,5 C 93 % 1017,8 hPa 0,0 l/m 0,0 km/h (0 Bft) N-NW 336 0 min 0 W/m 10,4 C 11,5 C 0,0 km/h (0 Bft)
15.07.2018 04:21 11,6 C 93 % 1017,9 hPa 0,0 l/m 0,0 km/h (0 Bft) N-NW 336 0 min 0 W/m 10,5 C 11,6 C 0,0 km/h (0 Bft)
15.07.2018 04:24 11,6 C 93 % 1017,8 hPa 0,0 l/m 0,0 km/h (0 Bft) N-NW 336 0 min 0 W/m 10,5 C 11,6 C 0,0 km/h (0 Bft)
15.07.2018 04:27 11,6 C 93 % 1017,9 hPa 0,0 l/m 0,0 km/h (0 Bft) N-NW 336 0 min 0 W/m 10,5 C 11,6 C 0,0 km/h (0 Bft)
15.07.2018 04:30 11,6 C 93 % 1017,8 hPa 0,0 l/m 0,0 km/h (0 Bft) N-NW 336 0 min 0 W/m 10,5 C 11,6 C 0,0 km/h (0 Bft)
15.07.2018 04:33 11,4 C 93 % 1017,8 hPa 0,0 l/m 0,0 km/h (0 Bft) N-NW 336 0 min 0 W/m 10,3 C 11,4 C 0,0 km/h (0 Bft)
15.07.2018 04:36 11,3 C 93 % 1017,9 hPa 0,0 l/m 0,0 km/h (0 Bft) N-NW 336 0 min 0 W/m 10,2 C 11,3 C 0,0 km/h (0 Bft)
15.07.2018 04:39 11,3 C 93 % 1017,9 hPa 0,0 l/m 0,0 km/h (0 Bft) N-NW 336 0 min 0 W/m 10,2 C 11,3 C 0,0 km/h (0 Bft)
15.07.2018 04:42 11,2 C 93 % 1017,8 hPa 0,0 l/m 0,0 km/h (0 Bft) N-NW 336 0 min 0 W/m 10,1 C 11,2 C 0,0 km/h (0 Bft)
15.07.2018 04:45 11,1 C 93 % 1017,8 hPa 0,0 l/m 0,0 km/h (0 Bft) N-NW 336 0 min 0 W/m 10,0 C 11,1 C 0,0 km/h (0 Bft)
15.07.2018 04:48 11,2 C 93 % 1017,8 hPa 0,0 l/m 0,0 km/h (0 Bft) N-NW 336 0 min 0 W/m 10,1 C 11,2 C 0,0 km/h (0 Bft)
15.07.2018 04:51 11,2 C 94 % 1017,8 hPa 0,0 l/m 0,0 km/h (0 Bft) N-NW 336 0 min 0 W/m 10,3 C 11,2 C 0,0 km/h (0 Bft)
15.07.2018 04:54 11,1 C 93 % 1017,8 hPa 0,0 l/m 0,0 km/h (0 Bft) N-NW 336 0 min 0 W/m 10,0 C 11,1 C 0,0 km/h (0 Bft)
15.07.2018 04:57 11,0 C 93 % 1017,8 hPa 0,0 l/m 0,0 km/h (0 Bft) N-NW 336 0 min 0 W/m 9,9 C 11,0 C 0,0 km/h (0 Bft)
15.07.2018 05:00 11,0 C 93 % 1017,8 hPa 0,0 l/m 0,0 km/h (0 Bft) N-NW 336 0 min 0 W/m 9,9 C 11,0 C 0,0 km/h (0 Bft)
15.07.2018 05:03 11,0 C 93 % 1017,8 hPa 0,0 l/m 0,0 km/h (0 Bft) N-NW 336 0 min 0 W/m 9,9 C 11,0 C 0,0 km/h (0 Bft)
15.07.2018 05:06 10,9 C 93 % 1017,8 hPa 0,0 l/m 0,0 km/h (0 Bft) N-NW 336 0 min 0 W/m 9,8 C 10,9 C 0,0 km/h (0 Bft)
15.07.2018 05:09 10,9 C 93 % 1017,8 hPa 0,0 l/m 0,0 km/h (0 Bft) N-NW 336 0 min 0 W/m 9,8 C 10,9 C 0,0 km/h (0 Bft)
15.07.2018 05:12 10,8 C 93 % 1017,7 hPa 0,0 l/m 0,0 km/h (0 Bft) N-NW 336 0 min 0 W/m 9,7 C 10,8 C 0,0 km/h (0 Bft)
15.07.2018 05:15 10,8 C 94 % 1017,7 hPa 0,0 l/m 0,0 km/h (0 Bft) N-NW 336 0 min 0 W/m 9,9 C 10,8 C 0,0 km/h (0 Bft)
15.07.2018 05:18 10,8 C 94 % 1017,7 hPa 0,0 l/m 0,0 km/h (0 Bft) N-NW 336 0 min 0 W/m 9,9 C 10,8 C 0,0 km/h (0 Bft)
15.07.2018 05:21 10,7 C 93 % 1017,7 hPa 0,0 l/m 0,0 km/h (0 Bft) N-NW 336 0 min 0 W/m 9,6 C 10,7 C 0,0 km/h (0 Bft)
15.07.2018 05:24 10,5 C 93 % 1017,6 hPa 0,0 l/m 0,0 km/h (0 Bft) N-NW 336 0 min 5 W/m 9,4 C 10,5 C 0,0 km/h (0 Bft)
15.07.2018 05:27 10,4 C 93 % 1017,7 hPa 0,0 l/m 0,0 km/h (0 Bft) N-NW 336 0 min 5 W/m 9,3 C 10,4 C 0,0 km/h (0 Bft)
15.07.2018 05:30 10,4 C 94 % 1017,7 hPa 0,0 l/m 0,0 km/h (0 Bft) N-NW 336 0 min 5 W/m 9,5 C 10,4 C 0,0 km/h (0 Bft)
15.07.2018 05:33 10,4 C 94 % 1017,7 hPa 0,0 l/m 0,0 km/h (0 Bft) N-NW 336 0 min 7 W/m 9,5 C 10,4 C 0,0 km/h (0 Bft)
15.07.2018 05:36 10,4 C 94 % 1017,7 hPa 0,0 l/m 0,0 km/h (0 Bft) N-NW 336 0 min 7 W/m 9,5 C 10,4 C 0,0 km/h (0 Bft)
15.07.2018 05:39 10,5 C 94 % 1017,6 hPa 0,0 l/m 0,0 km/h (0 Bft) N-NW 336 0 min 9 W/m 9,6 C 10,5 C 0,0 km/h (0 Bft)
15.07.2018 05:42 10,7 C 94 % 1017,6 hPa 0,0 l/m 0,0 km/h (0 Bft) N-NW 336 0 min 9 W/m 9,8 C 10,7 C 0,0 km/h (0 Bft)
15.07.2018 05:45 10,7 C 94 % 1017,6 hPa 0,0 l/m 0,0 km/h (0 Bft) N-NW 336 0 min 9 W/m 9,8 C 10,7 C 0,0 km/h (0 Bft)
15.07.2018 05:48 10,8 C 94 % 1017,6 hPa 0,0 l/m 0,0 km/h (0 Bft) N-NW 336 0 min 11 W/m 9,9 C 10,8 C 0,0 km/h (0 Bft)
15.07.2018 05:51 10,9 C 94 % 1017,6 hPa 0,0 l/m 0,0 km/h (0 Bft) N-NW 336 0 min 11 W/m 10,0 C 10,9 C 0,0 km/h (0 Bft)
15.07.2018 05:54 10,9 C 94 % 1017,6 hPa 0,0 l/m 0,0 km/h (0 Bft) N-NW 336 0 min 11 W/m 10,0 C 10,9 C 0,0 km/h (0 Bft)
15.07.2018 05:57 11,0 C 94 % 1017,6 hPa 0,0 l/m 0,0 km/h (0 Bft) N-NW 336 0 min 12 W/m 10,1 C 11,0 C 0,0 km/h (0 Bft)
15.07.2018 06:00 11,1 C 94 % 1017,6 hPa 0,0 l/m 0,0 km/h (0 Bft) N-NW 336 0 min 12 W/m 10,2 C 11,1 C 0,0 km/h (0 Bft)
15.07.2018 06:03 11,2 C 94 % 1017,7 hPa 0,0 l/m 0,0 km/h (0 Bft) N-NW 336 0 min 12 W/m 10,3 C 11,2 C 0,0 km/h (0 Bft)
15.07.2018 06:06 11,1 C 94 % 1017,7 hPa 0,0 l/m 0,0 km/h (0 Bft) N-NW 336 0 min 14 W/m 10,2 C 11,1 C 0,0 km/h (0 Bft)
15.07.2018 06:09 11,1 C 94 % 1017,7 hPa 0,0 l/m 0,0 km/h (0 Bft) N-NW 336 0 min 14 W/m 10,2 C 11,1 C 0,0 km/h (0 Bft)
15.07.2018 06:12 10,9 C 94 % 1017,8 hPa 0,0 l/m 0,0 km/h (0 Bft) N-NW 336 0 min 16 W/m 10,0 C 10,9 C 0,0 km/h (0 Bft)
15.07.2018 06:15 10,9 C 94 % 1017,7 hPa 0,0 l/m 0,0 km/h (0 Bft) N-NW 336 0 min 16 W/m 10,0 C 10,9 C 0,0 km/h (0 Bft)
15.07.2018 06:18 11,0 C 94 % 1017,7 hPa 0,0 l/m 0,0 km/h (0 Bft) N-NW 336 0 min 16 W/m 10,1 C 11,0 C 0,0 km/h (0 Bft)
15.07.2018 06:21 11,1 C 94 % 1017,7 hPa 0,0 l/m 0,0 km/h (0 Bft) N-NW 336 0 min 16 W/m 10,2 C 11,1 C 0,0 km/h (0 Bft)
15.07.2018 06:24 11,2 C 94 % 1017,7 hPa 0,0 l/m 0,0 km/h (0 Bft) N-NW 336 0 min 18 W/m 10,3 C 11,2 C 0,0 km/h (0 Bft)
15.07.2018 06:27 11,3 C 94 % 1017,8 hPa 0,0 l/m 0,0 km/h (0 Bft) N-NW 336 0 min 18 W/m 10,4 C 11,3 C 0,0 km/h (0 Bft)
15.07.2018 06:30 11,4 C 94 % 1017,8 hPa 0,0 l/m 0,0 km/h (0 Bft) N-NW 336 0 min 18 W/m 10,5 C 11,4 C 0,0 km/h (0 Bft)
15.07.2018 06:33 11,5 C 94 % 1017,7 hPa 0,0 l/m 0,0 km/h (0 Bft) N-NW 336 0 min 19 W/m 10,6 C 11,5 C 0,0 km/h (0 Bft)
15.07.2018 06:36 11,6 C 94 % 1017,8 hPa 0,0 l/m 0,0 km/h (0 Bft) N-NW 336 0 min 19 W/m 10,7 C 11,6 C 0,0 km/h (0 Bft)
15.07.2018 06:39 11,8 C 95 % 1017,7 hPa 0,0 l/m 0,0 km/h (0 Bft) N-NW 336 0 min 19 W/m 11,0 C 11,8 C 0,0 km/h (0 Bft)
15.07.2018 06:42 11,9 C 94 % 1017,7 hPa 0,0 l/m 0,0 km/h (0 Bft) N-NW 336 0 min 21 W/m 11,0 C 11,9 C 0,0 km/h (0 Bft)
15.07.2018 06:45 12,0 C 94 % 1017,7 hPa 0,0 l/m 0,0 km/h (0 Bft) N-NW 336 0 min 21 W/m 11,1 C 12,0 C 0,0 km/h (0 Bft)
15.07.2018 06:48 12,1 C 95 % 1017,7 hPa 0,0 l/m 0,0 km/h (0 Bft) N-NW 336 0 min 21 W/m 11,3 C 12,1 C 0,0 km/h (0 Bft)
15.07.2018 06:51 12,2 C 95 % 1017,8 hPa 0,0 l/m 0,0 km/h (0 Bft) N-NW 336 0 min 21 W/m 11,4 C 12,2 C 0,0 km/h (0 Bft)
15.07.2018 06:54 12,3 C 95 % 1017,8 hPa 0,0 l/m 0,0 km/h (0 Bft) N-NW 336 0 min 23 W/m 11,5 C 12,3 C 0,0 km/h (0 Bft)
15.07.2018 06:57 12,4 C 95 % 1017,7 hPa 0,0 l/m 0,0 km/h (0 Bft) N-NW 336 0 min 23 W/m 11,6 C 12,4 C 0,0 km/h (0 Bft)
15.07.2018 07:00 12,7 C 95 % 1017,7 hPa 0,0 l/m 0,0 km/h (0 Bft) N-NW 336 0 min 23 W/m 11,9 C 12,7 C 0,0 km/h (0 Bft)
15.07.2018 07:03 12,8 C 95 % 1017,7 hPa 0,0 l/m 0,0 km/h (0 Bft) N-NW 336 0 min 23 W/m 12,0 C 12,8 C 0,0 km/h (0 Bft)
15.07.2018 07:06 12,9 C 95 % 1017,7 hPa 0,0 l/m 0,0 km/h (0 Bft) N-NW 336 0 min 25 W/m 12,1 C 12,9 C 0,0 km/h (0 Bft)
15.07.2018 07:09 13,1 C 95 % 1017,7 hPa 0,0 l/m 0,0 km/h (0 Bft) N-NW 336 0 min 25 W/m 12,3 C 13,1 C 0,0 km/h (0 Bft)
15.07.2018 07:12 13,3 C 95 % 1017,7 hPa 0,0 l/m 0,0 km/h (0 Bft) N-NW 336 0 min 25 W/m 12,5 C 13,3 C 0,0 km/h (0 Bft)
15.07.2018 07:15 13,4 C 95 % 1017,8 hPa 0,0 l/m 0,0 km/h (0 Bft) N-NW 336 0 min 25 W/m 12,6 C 13,4 C 0,0 km/h (0 Bft)
15.07.2018 07:18 13,7 C 95 % 1017,8 hPa 0,0 l/m 0,0 km/h (0 Bft) N-NW 336 0 min 26 W/m 12,9 C 13,7 C 0,0 km/h (0 Bft)
15.07.2018 07:21 13,8 C 95 % 1017,8 hPa 0,0 l/m 0,0 km/h (0 Bft) N-NW 336 0 min 26 W/m 13,0 C 13,8 C 0,0 km/h (0 Bft)
15.07.2018 07:24 14,0 C 95 % 1017,8 hPa 0,0 l/m 0,0 km/h (0 Bft) N-NW 336 0 min 26 W/m 13,2 C 14,0 C 0,0 km/h (0 Bft)
15.07.2018 07:27 14,2 C 95 % 1017,8 hPa 0,0 l/m 0,0 km/h (0 Bft) N-NW 336 0 min 28 W/m 13,4 C 14,2 C 0,0 km/h (0 Bft)
15.07.2018 07:30 14,2 C 95 % 1017,7 hPa 0,0 l/m 0,0 km/h (0 Bft) N-NW 336 0 min 28 W/m 13,4 C 14,2 C 0,0 km/h (0 Bft)
15.07.2018 07:33 14,4 C 95 % 1017,8 hPa 0,0 l/m 0,0 km/h (0 Bft) N-NW 336 0 min 28 W/m 13,6 C 14,4 C 0,0 km/h (0 Bft)
15.07.2018 07:36 14,3 C 94 % 1017,8 hPa 0,0 l/m 0,0 km/h (0 Bft) N-NW 336 0 min 30 W/m 13,3 C 14,3 C 0,0 km/h (0 Bft)
15.07.2018 07:39 14,3 C 95 % 1017,8 hPa 0,0 l/m 0,0 km/h (0 Bft) N-NW 336 0 min 30 W/m 13,5 C 14,3 C 0,0 km/h (0 Bft)
15.07.2018 07:42 14,6 C 95 % 1017,9 hPa 0,0 l/m 0,0 km/h (0 Bft) N-NW 335 0 min 32 W/m 13,8 C 14,6 C 1,6 km/h (1 Bft)
15.07.2018 07:45 14,8 C 95 % 1017,9 hPa 0,0 l/m 3,4 km/h (1 Bft) N-NW 335 0 min 32 W/m 14,0 C 14,8 C 4,8 km/h (1 Bft)
15.07.2018 07:48 14,9 C 94 % 1017,9 hPa 0,0 l/m 2,2 km/h (1 Bft) N-NW 335 0 min 32 W/m 13,9 C 14,9 C 4,8 km/h (1 Bft)
15.07.2018 07:51 15,1 C 94 % 1017,9 hPa 0,0 l/m 2,5 km/h (1 Bft) N-NW 335 0 min 33 W/m 14,1 C 15,1 C 4,8 km/h (1 Bft)
15.07.2018 07:54 15,1 C 94 % 1017,9 hPa 0,0 l/m 3,3 km/h (1 Bft) NW 305 0 min 33 W/m 14,1 C 15,1 C 4,8 km/h (1 Bft)
15.07.2018 07:57 15,3 C 94 % 1017,9 hPa 0,0 l/m 3,8 km/h (1 Bft) W-SW 254 0 min 33 W/m 14,3 C 15,3 C 8,0 km/h (2 Bft)
15.07.2018 08:00 15,4 C 93 % 1018,0 hPa 0,0 l/m 3,6 km/h (1 Bft) N-NW 331 0 min 33 W/m 14,3 C 15,4 C 8,0 km/h (2 Bft)
15.07.2018 08:03 15,4 C 93 % 1018,0 hPa 0,0 l/m 2,3 km/h (1 Bft) NW 322 0 min 35 W/m 14,3 C 15,4 C 4,8 km/h (1 Bft)
15.07.2018 08:06 15,6 C 92 % 1018,0 hPa 0,0 l/m 1,5 km/h (1 Bft) W 272 0 min 37 W/m 14,3 C 15,6 C 9,7 km/h (2 Bft)
15.07.2018 08:09 15,6 C 92 % 1018,1 hPa 0,0 l/m 1,2 km/h (1 Bft) W 272 0 min 37 W/m 14,3 C 15,6 C 4,8 km/h (1 Bft)
15.07.2018 08:12 15,7 C 92 % 1018,1 hPa 0,0 l/m 1,8 km/h (1 Bft) W 272 0 min 37 W/m 14,4 C 15,7 C 6,4 km/h (2 Bft)
15.07.2018 08:15 15,8 C 92 % 1018,1 hPa 0,0 l/m 2,1 km/h (1 Bft) W 271 0 min 40 W/m 14,5 C 15,8 C 4,8 km/h (1 Bft)
15.07.2018 08:18 15,8 C 91 % 1018,1 hPa 0,0 l/m 2,6 km/h (1 Bft) NW 316 0 min 47 W/m 14,3 C 15,8 C 6,4 km/h (2 Bft)
15.07.2018 08:21 16,0 C 90 % 1018,1 hPa 0,0 l/m 2,3 km/h (1 Bft) NW 316 0 min 181 W/m 14,4 C 16,0 C 4,8 km/h (1 Bft)
15.07.2018 08:24 16,2 C 90 % 1018,0 hPa 0,0 l/m 3,0 km/h (1 Bft) W-NW 299 0 min 230 W/m 14,6 C 16,2 C 6,4 km/h (2 Bft)
15.07.2018 08:27 16,2 C 89 % 1018,1 hPa 0,0 l/m 3,2 km/h (1 Bft) W 267 0 min 65 W/m 14,4 C 16,2 C 6,4 km/h (2 Bft)
15.07.2018 08:30 16,3 C 88 % 1018,1 hPa 0,0 l/m 2,3 km/h (1 Bft) W-NW 296 3 min 318 W/m 14,3 C 16,3 C 6,4 km/h (2 Bft)
15.07.2018 08:33 16,4 C 88 % 1018,1 hPa 0,0 l/m 2,7 km/h (1 Bft) W-NW 302 3 min 332 W/m 14,4 C 16,4 C 6,4 km/h (2 Bft)
15.07.2018 08:36 16,5 C 87 % 1018,2 hPa 0,0 l/m 2,5 km/h (1 Bft) NW 323 3 min 336 W/m 14,3 C 16,5 C 6,4 km/h (2 Bft)
15.07.2018 08:39 16,7 C 87 % 1018,1 hPa 0,0 l/m 0,0 km/h (0 Bft) NW 323 3 min 350 W/m 14,5 C 16,7 C 0,0 km/h (0 Bft)
15.07.2018 08:42 17,0 C 86 % 1018,1 hPa 0,0 l/m 2,3 km/h (1 Bft) W-NW 296 3 min 355 W/m 14,6 C 17,0 C 6,4 km/h (2 Bft)
15.07.2018 08:45 17,1 C 85 % 1018,1 hPa 0,0 l/m 3,9 km/h (1 Bft) N-NW 346 3 min 369 W/m 14,6 C 17,1 C 8,0 km/h (2 Bft)
15.07.2018 08:48 17,1 C 85 % 1018,0 hPa 0,0 l/m 1,4 km/h (1 Bft) N-NW 342 3 min 380 W/m 14,6 C 17,1 C 6,4 km/h (2 Bft)
15.07.2018 08:51 17,3 C 84 % 1018,0 hPa 0,0 l/m 3,1 km/h (1 Bft) N-NW 341 3 min 394 W/m 14,6 C 17,3 C 6,4 km/h (2 Bft)
15.07.2018 08:54 17,3 C 83 % 1018,1 hPa 0,0 l/m 2,1 km/h (1 Bft) N-NW 342 3 min 403 W/m 14,4 C 17,3 C 4,8 km/h (1 Bft)
15.07.2018 08:57 17,5 C 83 % 1018,1 hPa 0,0 l/m 1,9 km/h (1 Bft) N-NW 342 3 min 411 W/m 14,6 C 17,5 C 4,8 km/h (1 Bft)
15.07.2018 09:00 17,4 C 82 % 1018,0 hPa 0,0 l/m 3,1 km/h (1 Bft) N-NW 342 3 min 422 W/m 14,3 C 17,4 C 6,4 km/h (2 Bft)
15.07.2018 09:03 17,4 C 82 % 1018,0 hPa 0,0 l/m 1,6 km/h (1 Bft) N-NW 342 3 min 427 W/m 14,3 C 17,4 C 3,2 km/h (1 Bft)
15.07.2018 09:06 17,4 C 82 % 1018,0 hPa 0,0 l/m 3,2 km/h (1 Bft) N-NW 342 3 min 434 W/m 14,3 C 17,4 C 4,8 km/h (1 Bft)
15.07.2018 09:09 17,6 C 82 % 1018,1 hPa 0,0 l/m 2,4 km/h (1 Bft) N-NW 346 3 min 443 W/m 14,5 C 17,6 C 6,4 km/h (2 Bft)
15.07.2018 09:12 17,8 C 82 % 1018,1 hPa 0,0 l/m 4,9 km/h (1 Bft) W 279 3 min 450 W/m 14,7 C 17,8 C 9,7 km/h (2 Bft)
15.07.2018 09:15 18,1 C 80 % 1018,1 hPa 0,0 l/m 1,5 km/h (1 Bft) W 279 3 min 461 W/m 14,6 C 18,1 C 4,8 km/h (1 Bft)
15.07.2018 09:18 18,1 C 80 % 1018,0 hPa 0,0 l/m 4,2 km/h (1 Bft) N-NW 337 3 min 471 W/m 14,6 C 18,1 C 8,0 km/h (2 Bft)
15.07.2018 09:21 17,9 C 80 % 1018,1 hPa 0,0 l/m 4,7 km/h (1 Bft) N 360 3 min 476 W/m 14,4 C 17,9 C 9,7 km/h (2 Bft)
15.07.2018 09:24 18,0 C 80 % 1018,1 hPa 0,0 l/m 4,8 km/h (1 Bft) N-NW 336 3 min 483 W/m 14,5 C 18,0 C 8,0 km/h (2 Bft)
15.07.2018 09:27 18,1 C 79 % 1018,1 hPa 0,0 l/m 3,3 km/h (1 Bft) N-NW 340 3 min 490 W/m 14,4 C 18,1 C 6,4 km/h (2 Bft)
15.07.2018 09:30 18,1 C 80 % 1018,2 hPa 0,0 l/m 4,7 km/h (1 Bft) N-NW 342 3 min 496 W/m 14,6 C 18,1 C 8,0 km/h (2 Bft)
15.07.2018 09:33 18,3 C 79 % 1018,1 hPa 0,0 l/m 3,9 km/h (1 Bft) N-NW 342 3 min 501 W/m 14,6 C 18,3 C 6,4 km/h (2 Bft)
15.07.2018 09:36 18,4 C 79 % 1018,2 hPa 0,0 l/m 0,7 km/h (0 Bft) N-NW 342 3 min 508 W/m 14,7 C 18,4 C 4,8 km/h (1 Bft)
15.07.2018 09:39 18,4 C 79 % 1018,2 hPa 0,0 l/m 3,2 km/h (1 Bft) NW 325 3 min 513 W/m 14,7 C 18,4 C 12,9 km/h (3 Bft)
15.07.2018 09:42 18,8 C 78 % 1018,2 hPa 0,0 l/m 2,1 km/h (1 Bft) NW 325 3 min 522 W/m 14,9 C 18,8 C 8,0 km/h (2 Bft)
15.07.2018 09:45 18,8 C 76 % 1018,2 hPa 0,0 l/m 4,1 km/h (1 Bft) N-NW 339 3 min 533 W/m 14,5 C 18,8 C 6,4 km/h (2 Bft)
15.07.2018 09:48 18,6 C 78 % 1018,2 hPa 0,0 l/m 5,3 km/h (1 Bft) N 355 3 min 538 W/m 14,7 C 18,6 C 12,9 km/h (3 Bft)
15.07.2018 09:51 18,7 C 77 % 1018,2 hPa 0,0 l/m 4,0 km/h (1 Bft) N-NW 333 3 min 534 W/m 14,6 C 18,7 C 8,0 km/h (2 Bft)
15.07.2018 09:54 18,7 C 77 % 1018,2 hPa 0,0 l/m 4,0 km/h (1 Bft) NW 323 3 min 533 W/m 14,6 C 18,7 C 8,0 km/h (2 Bft)
15.07.2018 09:57 18,9 C 76 % 1018,2 hPa 0,0 l/m 3,5 km/h (1 Bft) N-NW 348 3 min 529 W/m 14,6 C 18,9 C 8,0 km/h (2 Bft)
15.07.2018 10:00 18,8 C 76 % 1018,2 hPa 0,0 l/m 5,3 km/h (1 Bft) NW 315 3 min 519 W/m 14,5 C 18,8 C 9,7 km/h (2 Bft)
15.07.2018 10:03 18,9 C 77 % 1018,2 hPa 0,0 l/m 5,7 km/h (2 Bft) NW 323 3 min 508 W/m 14,8 C 18,9 C 8,0 km/h (2 Bft)
15.07.2018 10:06 18,9 C 76 % 1018,2 hPa 0,0 l/m 6,0 km/h (2 Bft) N 355 3 min 492 W/m 14,6 C 18,9 C 9,7 km/h (2 Bft)
15.07.2018 10:09 19,1 C 77 % 1018,2 hPa 0,0 l/m 4,2 km/h (1 Bft) N-NW 330 3 min 485 W/m 15,0 C 19,1 C 11,3 km/h (2 Bft)
15.07.2018 10:12 19,2 C 77 % 1018,2 hPa 0,0 l/m 2,0 km/h (1 Bft) N-NW 342 3 min 476 W/m 15,1 C 19,2 C 6,4 km/h (2 Bft)
15.07.2018 10:15 19,4 C 75 % 1018,2 hPa 0,0 l/m 5,8 km/h (2 Bft) W 281 3 min 475 W/m 14,8 C 19,4 C 9,7 km/h (2 Bft)
15.07.2018 10:18 19,7 C 73 % 1018,2 hPa 0,0 l/m 5,4 km/h (2 Bft) S-SW 205 3 min 476 W/m 14,7 C 19,7 C 9,7 km/h (2 Bft)
15.07.2018 10:21 19,9 C 73 % 1018,2 hPa 0,0 l/m 2,8 km/h (1 Bft) SW 234 3 min 485 W/m 14,9 C 19,9 C 6,4 km/h (2 Bft)
15.07.2018 10:24 19,9 C 74 % 1018,2 hPa 0,0 l/m 3,3 km/h (1 Bft) NW 319 3 min 499 W/m 15,1 C 19,9 C 8,0 km/h (2 Bft)
15.07.2018 10:27 20,0 C 73 % 1018,1 hPa 0,0 l/m 6,2 km/h (2 Bft) N-NW 331 3 min 517 W/m 15,0 C 20,0 C 12,9 km/h (3 Bft)
15.07.2018 10:30 20,0 C 73 % 1018,1 hPa 0,0 l/m 1,5 km/h (1 Bft) N-NW 332 3 min 547 W/m 15,0 C 20,0 C 3,2 km/h (1 Bft)
15.07.2018 10:33 20,0 C 72 % 1018,2 hPa 0,0 l/m 4,4 km/h (1 Bft) NW 315 3 min 570 W/m 14,8 C 20,0 C 8,0 km/h (2 Bft)
15.07.2018 10:36 20,1 C 73 % 1018,1 hPa 0,0 l/m 2,9 km/h (1 Bft) N-NW 345 3 min 601 W/m 15,1 C 20,1 C 6,4 km/h (2 Bft)
15.07.2018 10:39 20,2 C 72 % 1018,0 hPa 0,0 l/m 4,5 km/h (1 Bft) W 261 3 min 626 W/m 15,0 C 20,2 C 11,3 km/h (2 Bft)
15.07.2018 10:42 20,3 C 71 % 1018,0 hPa 0,0 l/m 6,2 km/h (2 Bft) NW 315 3 min 645 W/m 14,9 C 20,3 C 12,9 km/h (3 Bft)
15.07.2018 10:45 20,3 C 71 % 1018,1 hPa 0,0 l/m 7,4 km/h (2 Bft) N-NW 333 3 min 659 W/m 14,9 C 19,9 C 14,5 km/h (3 Bft)
15.07.2018 10:48 20,3 C 71 % 1018,1 hPa 0,0 l/m 6,1 km/h (2 Bft) NW 316 3 min 664 W/m 14,9 C 20,3 C 9,7 km/h (2 Bft)
15.07.2018 10:51 20,0 C 71 % 1018,0 hPa 0,0 l/m 5,7 km/h (2 Bft) NW 319 3 min 671 W/m 14,6 C 20,0 C 12,9 km/h (3 Bft)
15.07.2018 10:54 19,9 C 72 % 1018,0 hPa 0,0 l/m 6,1 km/h (2 Bft) N-NW 340 3 min 675 W/m 14,7 C 19,9 C 9,7 km/h (2 Bft)
15.07.2018 10:57 20,1 C 71 % 1018,1 hPa 0,0 l/m 6,6 km/h (2 Bft) NW 316 3 min 682 W/m 14,7 C 20,0 C 12,9 km/h (3 Bft)
15.07.2018 11:00 20,4 C 71 % 1018,1 hPa 0,0 l/m 6,0 km/h (2 Bft) N-NW 331 3 min 686 W/m 15,0 C 20,4 C 9,7 km/h (2 Bft)
15.07.2018 11:03 20,3 C 71 % 1018,1 hPa 0,0 l/m 3,2 km/h (1 Bft) N 355 3 min 691 W/m 14,9 C 20,3 C 9,7 km/h (2 Bft)
15.07.2018 11:06 20,5 C 72 % 1018,0 hPa 0,0 l/m 6,2 km/h (2 Bft) N-NW 344 3 min 700 W/m 15,3 C 20,5 C 12,9 km/h (3 Bft)
15.07.2018 11:09 20,6 C 71 % 1018,0 hPa 0,0 l/m 4,7 km/h (1 Bft) W-NW 289 3 min 705 W/m 15,2 C 20,6 C 9,7 km/h (2 Bft)
15.07.2018 11:12 20,9 C 70 % 1017,9 hPa 0,0 l/m 4,4 km/h (1 Bft) NW 313 3 min 707 W/m 15,2 C 20,9 C 9,7 km/h (2 Bft)
15.07.2018 11:15 20,9 C 69 % 1017,9 hPa 0,0 l/m 5,9 km/h (2 Bft) N-NW 335 3 min 719 W/m 15,0 C 20,9 C 9,7 km/h (2 Bft)
15.07.2018 11:18 20,6 C 69 % 1018,0 hPa 0,0 l/m 3,7 km/h (1 Bft) NW 306 3 min 719 W/m 14,7 C 20,6 C 11,3 km/h (2 Bft)
15.07.2018 11:21 21,1 C 69 % 1018,0 hPa 0,0 l/m 6,2 km/h (2 Bft) NW 309 3 min 721 W/m 15,2 C 21,1 C 12,9 km/h (3 Bft)
15.07.2018 11:24 21,0 C 69 % 1018,0 hPa 0,0 l/m 6,1 km/h (2 Bft) W-NW 286 3 min 726 W/m 15,1 C 21,0 C 12,9 km/h (3 Bft)
15.07.2018 11:27 21,2 C 69 % 1018,0 hPa 0,0 l/m 4,3 km/h (1 Bft) N-NW 338 3 min 729 W/m 15,3 C 21,2 C 9,7 km/h (2 Bft)
15.07.2018 11:30 21,4 C 67 % 1018,1 hPa 0,0 l/m 7,2 km/h (2 Bft) N 355 3 min 731 W/m 15,0 C 21,1 C 12,9 km/h (3 Bft)
15.07.2018 11:33 20,8 C 70 % 1018,1 hPa 0,0 l/m 5,4 km/h (2 Bft) NW 323 3 min 744 W/m 15,1 C 20,8 C 12,9 km/h (3 Bft)
15.07.2018 11:36 21,3 C 70 % 1018,1 hPa 0,0 l/m 4,9 km/h (1 Bft) NW 316 3 min 745 W/m 15,6 C 21,3 C 9,7 km/h (2 Bft)
15.07.2018 11:39 21,7 C 69 % 1018,1 hPa 0,0 l/m 5,9 km/h (2 Bft) N 5 3 min 752 W/m 15,8 C 21,7 C 12,9 km/h (3 Bft)
15.07.2018 11:42 21,7 C 69 % 1018,1 hPa 0,0 l/m 4,2 km/h (1 Bft) N 360 3 min 759 W/m 15,8 C 21,7 C 12,9 km/h (3 Bft)
15.07.2018 11:45 21,9 C 68 % 1018,1 hPa 0,0 l/m 4,5 km/h (1 Bft) N-NW 332 3 min 766 W/m 15,7 C 21,9 C 14,5 km/h (3 Bft)
15.07.2018 11:48 22,1 C 68 % 1018,2 hPa 0,0 l/m 5,3 km/h (1 Bft) N 5 3 min 780 W/m 15,9 C 22,1 C 9,7 km/h (2 Bft)
15.07.2018 11:51 21,9 C 66 % 1018,1 hPa 0,0 l/m 5,4 km/h (2 Bft) N-NW 347 3 min 777 W/m 15,3 C 21,9 C 9,7 km/h (2 Bft)
15.07.2018 11:54 21,8 C 67 % 1018,1 hPa 0,0 l/m 5,5 km/h (2 Bft) N-NW 327 3 min 775 W/m 15,4 C 21,8 C 9,7 km/h (2 Bft)
15.07.2018 11:57 21,8 C 66 % 1018,1 hPa 0,0 l/m 3,5 km/h (1 Bft) N 355 3 min 777 W/m 15,2 C 21,8 C 8,0 km/h (2 Bft)
15.07.2018 12:00 21,8 C 67 % 1018,2 hPa 0,0 l/m 5,7 km/h (2 Bft) W 274 3 min 782 W/m 15,4 C 21,8 C 11,3 km/h (2 Bft)
15.07.2018 12:03 21,9 C 67 % 1018,1 hPa 0,0 l/m 6,0 km/h (2 Bft) N 355 3 min 768 W/m 15,5 C 21,9 C 12,9 km/h (3 Bft)
15.07.2018 12:06 22,0 C 69 % 1018,1 hPa 0,0 l/m 7,2 km/h (2 Bft) N-NW 343 3 min 782 W/m 16,0 C 21,7 C 12,9 km/h (3 Bft)
15.07.2018 12:09 22,2 C 68 % 1018,0 hPa 0,0 l/m 6,8 km/h (2 Bft) NW 324 3 min 761 W/m 16,0 C 22,1 C 16,1 km/h (3 Bft)
15.07.2018 12:12 22,4 C 68 % 1018,0 hPa 0,0 l/m 7,9 km/h (2 Bft) NW 321 3 min 749 W/m 16,2 C 21,9 C 17,7 km/h (3 Bft)
15.07.2018 12:15 22,4 C 68 % 1018,0 hPa 0,0 l/m 6,4 km/h (2 Bft) N-NW 345 3 min 726 W/m 16,2 C 22,4 C 12,9 km/h (3 Bft)
15.07.2018 12:18 22,6 C 68 % 1018,0 hPa 0,0 l/m 4,3 km/h (1 Bft) N 5 3 min 698 W/m 16,4 C 22,6 C 8,0 km/h (2 Bft)
15.07.2018 12:21 22,4 C 68 % 1018,1 hPa 0,0 l/m 7,1 km/h (2 Bft) N 351 3 min 673 W/m 16,2 C 22,2 C 14,5 km/h (3 Bft)
15.07.2018 12:24 22,4 C 69 % 1018,0 hPa 0,0 l/m 8,4 km/h (2 Bft) N 349 3 min 654 W/m 16,4 C 21,7 C 16,1 km/h (3 Bft)
15.07.2018 12:27 22,3 C 67 % 1018,1 hPa 0,0 l/m 9,9 km/h (2 Bft) W-NW 284 3 min 633 W/m 15,9 C 21,2 C 17,7 km/h (3 Bft)
15.07.2018 12:30 22,3 C 68 % 1018,0 hPa 0,0 l/m 8,1 km/h (2 Bft) N 5 3 min 624 W/m 16,1 C 21,7 C 16,1 km/h (3 Bft)
15.07.2018 12:33 22,4 C 69 % 1018,0 hPa 0,0 l/m 7,5 km/h (2 Bft) NW 322 3 min 621 W/m 16,4 C 22,0 C 16,1 km/h (3 Bft)
15.07.2018 12:36 22,3 C 68 % 1018,0 hPa 0,0 l/m 9,5 km/h (2 Bft) NW 308 3 min 629 W/m 16,1 C 21,3 C 16,1 km/h (3 Bft)
15.07.2018 12:39 22,4 C 68 % 1018,0 hPa 0,0 l/m 7,5 km/h (2 Bft) N-NW 343 3 min 643 W/m 16,2 C 22,0 C 14,5 km/h (3 Bft)
15.07.2018 12:42 22,4 C 68 % 1018,0 hPa 0,0 l/m 8,5 km/h (2 Bft) N-NW 342 3 min 663 W/m 16,2 C 21,7 C 14,5 km/h (3 Bft)
15.07.2018 12:45 22,3 C 67 % 1018,0 hPa 0,0 l/m 8,7 km/h (2 Bft) N-NW 344 3 min 698 W/m 15,9 C 21,6 C 12,9 km/h (3 Bft)
15.07.2018 12:48 22,2 C 69 % 1018,0 hPa 0,0 l/m 7,8 km/h (2 Bft) NW 318 3 min 724 W/m 16,2 C 21,7 C 16,1 km/h (3 Bft)
15.07.2018 12:51 22,3 C 68 % 1018,0 hPa 0,0 l/m 8,2 km/h (2 Bft) N-NO 33 3 min 758 W/m 16,1 C 21,7 C 16,1 km/h (3 Bft)
15.07.2018 12:54 22,3 C 68 % 1018,0 hPa 0,0 l/m 9,5 km/h (2 Bft) NW 322 3 min 779 W/m 16,1 C 21,3 C 14,5 km/h (3 Bft)
15.07.2018 12:57 22,4 C 69 % 1017,9 hPa 0,0 l/m 5,8 km/h (2 Bft) N-NO 13 3 min 798 W/m 16,4 C 22,4 C 12,9 km/h (3 Bft)
15.07.2018 13:00 22,2 C 68 % 1017,9 hPa 0,0 l/m 5,3 km/h (1 Bft) N 5 3 min 816 W/m 16,0 C 22,2 C 12,9 km/h (3 Bft)
15.07.2018 13:03 22,0 C 70 % 1018,0 hPa 0,0 l/m 4,3 km/h (1 Bft) N-NW 330 3 min 819 W/m 16,3 C 22,0 C 9,7 km/h (2 Bft)
15.07.2018 13:06 22,0 C 70 % 1018,0 hPa 0,0 l/m 5,3 km/h (1 Bft) N-NW 338 3 min 821 W/m 16,3 C 22,0 C 12,9 km/h (3 Bft)
15.07.2018 13:09 22,3 C 69 % 1018,0 hPa 0,0 l/m 8,8 km/h (2 Bft) NW 317 3 min 823 W/m 16,3 C 21,5 C 16,1 km/h (3 Bft)
15.07.2018 13:12 22,4 C 67 % 1018,0 hPa 0,0 l/m 7,3 km/h (2 Bft) W-NW 303 3 min 821 W/m 16,0 C 22,1 C 16,1 km/h (3 Bft)
15.07.2018 13:15 22,4 C 68 % 1018,0 hPa 0,0 l/m 6,5 km/h (2 Bft) N 350 3 min 824 W/m 16,2 C 22,4 C 14,5 km/h (3 Bft)
15.07.2018 13:18 22,3 C 69 % 1018,0 hPa 0,0 l/m 6,3 km/h (2 Bft) N-NW 348 3 min 826 W/m 16,3 C 22,3 C 11,3 km/h (2 Bft)
15.07.2018 13:21 22,5 C 68 % 1018,0 hPa 0,0 l/m 6,3 km/h (2 Bft) NW 318 3 min 821 W/m 16,3 C 22,5 C 16,1 km/h (3 Bft)
15.07.2018 13:24 22,4 C 67 % 1018,0 hPa 0,0 l/m 10,2 km/h (2 Bft) N-NW 338 3 min 824 W/m 16,0 C 21,2 C 14,5 km/h (3 Bft)
15.07.2018 13:27 22,3 C 68 % 1018,0 hPa 0,0 l/m 4,4 km/h (1 Bft) N-NW 338 3 min 824 W/m 16,1 C 22,3 C 9,7 km/h (2 Bft)
15.07.2018 13:30 22,3 C 69 % 1018,0 hPa 0,0 l/m 6,4 km/h (2 Bft) NW 310 3 min 828 W/m 16,3 C 22,3 C 12,9 km/h (3 Bft)
15.07.2018 13:33 22,4 C 68 % 1017,9 hPa 0,0 l/m 6,6 km/h (2 Bft) NW 312 3 min 828 W/m 16,2 C 22,3 C 12,9 km/h (3 Bft)
15.07.2018 13:36 22,4 C 68 % 1017,9 hPa 0,0 l/m 4,1 km/h (1 Bft) N-NO 30 3 min 826 W/m 16,2 C 22,4 C 9,7 km/h (2 Bft)
15.07.2018 13:39 22,4 C 69 % 1017,9 hPa 0,0 l/m 6,6 km/h (2 Bft) NW 310 3 min 828 W/m 16,4 C 22,3 C 14,5 km/h (3 Bft)
15.07.2018 13:42 22,7 C 67 % 1017,9 hPa 0,0 l/m 8,0 km/h (2 Bft) NW 323 3 min 824 W/m 16,2 C 22,2 C 16,1 km/h (3 Bft)
15.07.2018 13:45 22,7 C 67 % 1017,9 hPa 0,0 l/m 7,6 km/h (2 Bft) N-NW 344 3 min 823 W/m 16,2 C 22,3 C 16,1 km/h (3 Bft)
15.07.2018 13:48 22,6 C 67 % 1017,8 hPa 0,0 l/m 7,7 km/h (2 Bft) NW 311 3 min 821 W/m 16,2 C 22,2 C 14,5 km/h (3 Bft)
15.07.2018 13:51 22,4 C 68 % 1017,9 hPa 0,0 l/m 9,8 km/h (2 Bft) NW 308 3 min 819 W/m 16,2 C 21,3 C 16,1 km/h (3 Bft)
15.07.2018 13:54 22,7 C 68 % 1017,9 hPa 0,0 l/m 8,9 km/h (2 Bft) N-NW 347 3 min 821 W/m 16,5 C 21,9 C 14,5 km/h (3 Bft)
15.07.2018 13:57 22,5 C 68 % 1017,9 hPa 0,0 l/m 10,1 km/h (2 Bft) NW 321 3 min 823 W/m 16,3 C 21,4 C 16,1 km/h (3 Bft)
15.07.2018 14:00 22,4 C 68 % 1017,9 hPa 0,0 l/m 8,6 km/h (2 Bft) N 11 3 min 819 W/m 16,2 C 21,7 C 16,1 km/h (3 Bft)
15.07.2018 14:03 22,4 C 69 % 1017,8 hPa 0,0 l/m 8,1 km/h (2 Bft) N 351 3 min 817 W/m 16,4 C 21,8 C 16,1 km/h (3 Bft)
15.07.2018 14:06 22,5 C 68 % 1017,8 hPa 0,0 l/m 8,8 km/h (2 Bft) NW 322 3 min 812 W/m 16,3 C 21,7 C 16,1 km/h (3 Bft)
15.07.2018 14:09 22,4 C 68 % 1017,8 hPa 0,0 l/m 8,8 km/h (2 Bft) N 350 3 min 812 W/m 16,2 C 21,6 C 16,1 km/h (3 Bft)
15.07.2018 14:12 22,2 C 69 % 1017,8 hPa 0,0 l/m 8,2 km/h (2 Bft) N-NW 343 3 min 814 W/m 16,2 C 21,6 C 16,1 km/h (3 Bft)
15.07.2018 14:15 22,2 C 68 % 1017,8 hPa 0,0 l/m 6,2 km/h (2 Bft) NW 308 3 min 812 W/m 16,0 C 22,2 C 12,9 km/h (3 Bft)
15.07.2018 14:18 22,4 C 68 % 1017,7 hPa 0,0 l/m 7,0 km/h (2 Bft) W 278 3 min 807 W/m 16,2 C 22,2 C 14,5 km/h (3 Bft)
15.07.2018 14:21 22,5 C 67 % 1017,8 hPa 0,0 l/m 7,2 km/h (2 Bft) N 5 3 min 809 W/m 16,1 C 22,2 C 16,1 km/h (3 Bft)
15.07.2018 14:24 22,3 C 67 % 1017,8 hPa 0,0 l/m 9,1 km/h (2 Bft) W-NW 296 3 min 807 W/m 15,9 C 21,4 C 16,1 km/h (3 Bft)
15.07.2018 14:27 22,3 C 67 % 1017,8 hPa 0,0 l/m 9,8 km/h (2 Bft) NW 326 3 min 802 W/m 15,9 C 21,2 C 14,5 km/h (3 Bft)
15.07.2018 14:30 22,2 C 67 % 1017,7 hPa 0,0 l/m 8,8 km/h (2 Bft) N-NW 344 3 min 803 W/m 15,8 C 21,4 C 16,1 km/h (3 Bft)
15.07.2018 14:33 22,2 C 67 % 1017,7 hPa 0,0 l/m 4,0 km/h (1 Bft) N-NO 21 3 min 802 W/m 15,8 C 22,2 C 12,9 km/h (3 Bft)
15.07.2018 14:36 22,0 C 67 % 1017,7 hPa 0,0 l/m 4,6 km/h (1 Bft) N-NO 26 3 min 796 W/m 15,6 C 22,0 C 8,0 km/h (2 Bft)
15.07.2018 14:39 22,1 C 67 % 1017,7 hPa 0,0 l/m 4,4 km/h (1 Bft) N 360 3 min 793 W/m 15,7 C 22,1 C 12,9 km/h (3 Bft)
15.07.2018 14:42 22,3 C 66 % 1017,6 hPa 0,0 l/m 9,7 km/h (2 Bft) NW 322 3 min 795 W/m 15,6 C 21,3 C 14,5 km/h (3 Bft)
15.07.2018 14:45 22,4 C 65 % 1017,6 hPa 0,0 l/m 6,9 km/h (2 Bft) NW 310 3 min 791 W/m 15,5 C 22,2 C 14,5 km/h (3 Bft)
15.07.2018 14:48 22,4 C 66 % 1017,6 hPa 0,0 l/m 8,6 km/h (2 Bft) N-NW 342 3 min 788 W/m 15,7 C 21,7 C 17,7 km/h (3 Bft)
15.07.2018 14:51 22,6 C 65 % 1017,5 hPa 0,0 l/m 9,9 km/h (2 Bft) NW 308 3 min 788 W/m 15,7 C 21,5 C 16,1 km/h (3 Bft)
15.07.2018 14:54 22,7 C 65 % 1017,5 hPa 0,0 l/m 8,8 km/h (2 Bft) NW 311 3 min 779 W/m 15,8 C 21,9 C 16,1 km/h (3 Bft)
15.07.2018 14:57 22,6 C 65 % 1017,5 hPa 0,0 l/m 7,2 km/h (2 Bft) N-NW 332 3 min 779 W/m 15,7 C 22,3 C 12,9 km/h (3 Bft)
15.07.2018 15:00 22,6 C 65 % 1017,5 hPa 0,0 l/m 9,2 km/h (2 Bft) NW 323 3 min 773 W/m 15,7 C 21,7 C 17,7 km/h (3 Bft)
15.07.2018 15:03 22,5 C 65 % 1017,4 hPa 0,0 l/m 10,9 km/h (2 Bft) NW 319 3 min 773 W/m 15,6 C 21,2 C 16,1 km/h (3 Bft)
15.07.2018 15:06 22,6 C 65 % 1017,4 hPa 0,0 l/m 8,9 km/h (2 Bft) N-NW 346 3 min 766 W/m 15,7 C 21,8 C 16,1 km/h (3 Bft)
15.07.2018 15:09 22,4 C 66 % 1017,4 hPa 0,0 l/m 10,5 km/h (2 Bft) W 280 3 min 768 W/m 15,7 C 21,2 C 16,1 km/h (3 Bft)
15.07.2018 15:12 22,6 C 65 % 1017,3 hPa 0,0 l/m 9,5 km/h (2 Bft) N-NW 346 3 min 761 W/m 15,7 C 21,6 C 16,1 km/h (3 Bft)
15.07.2018 15:15 22,5 C 64 % 1017,3 hPa 0,0 l/m 9,6 km/h (2 Bft) N 355 3 min 758 W/m 15,3 C 21,5 C 16,1 km/h (3 Bft)
15.07.2018 15:18 22,1 C 66 % 1017,3 hPa 0,0 l/m 7,3 km/h (2 Bft) N-NW 345 3 min 751 W/m 15,4 C 21,8 C 14,5 km/h (3 Bft)
15.07.2018 15:21 22,3 C 66 % 1017,3 hPa 0,0 l/m 9,5 km/h (2 Bft) N-NO 29 3 min 749 W/m 15,6 C 21,3 C 17,7 km/h (3 Bft)
15.07.2018 15:24 22,2 C 65 % 1017,2 hPa 0,0 l/m 11,5 km/h (2 Bft) W-NW 303 3 min 742 W/m 15,3 C 20,7 C 17,7 km/h (3 Bft)
15.07.2018 15:27 22,4 C 66 % 1017,2 hPa 0,0 l/m 7,8 km/h (2 Bft) N-NW 336 3 min 740 W/m 15,7 C 21,9 C 19,3 km/h (3 Bft)
15.07.2018 15:30 22,5 C 65 % 1017,2 hPa 0,0 l/m 9,7 km/h (2 Bft) N 360 3 min 735 W/m 15,6 C 21,5 C 17,7 km/h (3 Bft)
15.07.2018 15:33 22,9 C 64 % 1017,1 hPa 0,0 l/m 9,4 km/h (2 Bft) NW 317 3 min 729 W/m 15,7 C 22,0 C 17,7 km/h (3 Bft)
15.07.2018 15:36 22,9 C 64 % 1017,2 hPa 0,0 l/m 10,0 km/h (2 Bft) N 360 3 min 726 W/m 15,7 C 21,8 C 16,1 km/h (3 Bft)
15.07.2018 15:39 22,2 C 65 % 1017,1 hPa 0,0 l/m 10,5 km/h (2 Bft) N 355 3 min 726 W/m 15,3 C 20,9 C 14,5 km/h (3 Bft)
15.07.2018 15:42 22,4 C 66 % 1017,1 hPa 0,0 l/m 10,5 km/h (2 Bft) N-NW 329 3 min 715 W/m 15,7 C 21,2 C 17,7 km/h (3 Bft)
15.07.2018 15:45 22,4 C 66 % 1017,1 hPa 0,0 l/m 10,8 km/h (2 Bft) N-NW 338 3 min 712 W/m 15,7 C 21,1 C 17,7 km/h (3 Bft)
15.07.2018 15:48 22,5 C 66 % 1017,0 hPa 0,0 l/m 8,7 km/h (2 Bft) N-NW 344 3 min 710 W/m 15,8 C 21,8 C 16,1 km/h (3 Bft)
15.07.2018 15:51 22,3 C 64 % 1017,0 hPa 0,0 l/m 8,7 km/h (2 Bft) N-NW 343 3 min 703 W/m 15,2 C 21,6 C 17,7 km/h (3 Bft)
15.07.2018 15:54 22,1 C 67 % 1017,0 hPa 0,0 l/m 10,1 km/h (2 Bft) N-NW 348 3 min 701 W/m 15,7 C 20,9 C 16,1 km/h (3 Bft)
15.07.2018 15:57 22,3 C 65 % 1017,1 hPa 0,0 l/m 11,2 km/h (2 Bft) N 360 3 min 696 W/m 15,4 C 20,9 C 17,7 km/h (3 Bft)
15.07.2018 16:00 22,3 C 67 % 1017,0 hPa 0,0 l/m 10,4 km/h (2 Bft) N-NW 331 3 min 693 W/m 15,9 C 21,1 C 19,3 km/h (3 Bft)
15.07.2018 16:03 22,4 C 64 % 1017,0 hPa 0,0 l/m 9,9 km/h (2 Bft) N-NW 329 3 min 686 W/m 15,2 C 21,3 C 19,3 km/h (3 Bft)
15.07.2018 16:06 22,4 C 63 % 1017,0 hPa 0,0 l/m 14,3 km/h (3 Bft) NW 323 3 min 686 W/m 15,0 C 20,3 C 19,3 km/h (3 Bft)
15.07.2018 16:09 22,5 C 64 % 1016,9 hPa 0,0 l/m 12,9 km/h (3 Bft) N-NW 337 3 min 675 W/m 15,3 C 20,7 C 17,7 km/h (3 Bft)
15.07.2018 16:12 22,4 C 65 % 1016,9 hPa 0,0 l/m 8,8 km/h (2 Bft) NW 312 3 min 670 W/m 15,5 C 21,6 C 14,5 km/h (3 Bft)
15.07.2018 16:15 22,3 C 64 % 1016,9 hPa 0,0 l/m 11,2 km/h (2 Bft) N-NW 344 3 min 666 W/m 15,2 C 20,9 C 17,7 km/h (3 Bft)
15.07.2018 16:18 22,3 C 65 % 1016,9 hPa 0,0 l/m 9,6 km/h (2 Bft) W-NW 299 3 min 664 W/m 15,4 C 21,3 C 16,1 km/h (3 Bft)
15.07.2018 16:21 22,4 C 66 % 1016,8 hPa 0,0 l/m 8,3 km/h (2 Bft) N-NW 331 3 min 657 W/m 15,7 C 21,8 C 17,7 km/h (3 Bft)
15.07.2018 16:24 22,6 C 65 % 1016,8 hPa 0,0 l/m 10,6 km/h (2 Bft) N-NW 338 3 min 650 W/m 15,7 C 21,4 C 16,1 km/h (3 Bft)
15.07.2018 16:27 22,6 C 64 % 1016,8 hPa 0,0 l/m 9,9 km/h (2 Bft) N-NW 347 3 min 643 W/m 15,4 C 21,5 C 19,3 km/h (3 Bft)
15.07.2018 16:30 22,3 C 65 % 1016,8 hPa 0,0 l/m 9,3 km/h (2 Bft) N-NW 337 3 min 640 W/m 15,4 C 21,4 C 16,1 km/h (3 Bft)
15.07.2018 16:33 22,5 C 65 % 1016,7 hPa 0,0 l/m 11,9 km/h (2 Bft) N 360 3 min 635 W/m 15,6 C 20,9 C 19,3 km/h (3 Bft)
15.07.2018 16:36 22,7 C 62 % 1016,8 hPa 0,0 l/m 10,6 km/h (2 Bft) N-NW 344 3 min 633 W/m 15,0 C 21,5 C 17,7 km/h (3 Bft)
15.07.2018 16:39 22,7 C 62 % 1016,7 hPa 0,0 l/m 10,3 km/h (2 Bft) N-NW 332 3 min 622 W/m 15,0 C 21,5 C 17,7 km/h (3 Bft)
15.07.2018 16:42 22,8 C 63 % 1016,7 hPa 0,0 l/m 7,0 km/h (2 Bft) W-NW 301 3 min 619 W/m 15,4 C 22,6 C 17,7 km/h (3 Bft)
15.07.2018 16:45 22,9 C 63 % 1016,7 hPa 0,0 l/m 6,2 km/h (2 Bft) W-NW 301 3 min 610 W/m 15,5 C 22,9 C 14,5 km/h (3 Bft)
15.07.2018 16:48 23,0 C 63 % 1016,7 hPa 0,0 l/m 8,9 km/h (2 Bft) NW 313 3 min 606 W/m 15,6 C 22,2 C 16,1 km/h (3 Bft)
15.07.2018 16:51 23,1 C 62 % 1016,7 hPa 0,0 l/m 7,5 km/h (2 Bft) W 277 3 min 598 W/m 15,4 C 22,8 C 16,1 km/h (3 Bft)
15.07.2018 16:54 23,0 C 63 % 1016,7 hPa 0,0 l/m 6,7 km/h (2 Bft) N 355 3 min 592 W/m 15,6 C 22,9 C 16,1 km/h (3 Bft)
15.07.2018 16:57 22,6 C 63 % 1016,6 hPa 0,0 l/m 5,5 km/h (2 Bft) NW 323 3 min 585 W/m 15,2 C 22,6 C 11,3 km/h (2 Bft)
15.07.2018 17:00 22,8 C 64 % 1016,6 hPa 0,0 l/m 10,4 km/h (2 Bft) N-NW 340 3 min 580 W/m 15,6 C 21,6 C 16,1 km/h (3 Bft)
15.07.2018 17:03 23,0 C 63 % 1016,6 hPa 0,0 l/m 6,7 km/h (2 Bft) N 350 3 min 573 W/m 15,6 C 22,9 C 14,5 km/h (3 Bft)
15.07.2018 17:06 22,9 C 63 % 1016,5 hPa 0,0 l/m 9,8 km/h (2 Bft) NW 325 3 min 570 W/m 15,5 C 21,9 C 16,1 km/h (3 Bft)
15.07.2018 17:09 23,0 C 63 % 1016,6 hPa 0,0 l/m 6,6 km/h (2 Bft) N 9 3 min 563 W/m 15,6 C 22,9 C 12,9 km/h (3 Bft)
15.07.2018 17:12 22,9 C 63 % 1016,6 hPa 0,0 l/m 5,8 km/h (2 Bft) N 349 3 min 555 W/m 15,5 C 22,9 C 14,5 km/h (3 Bft)
15.07.2018 17:15 22,8 C 63 % 1016,6 hPa 0,0 l/m 9,1 km/h (2 Bft) N-NW 334 3 min 550 W/m 15,4 C 22,0 C 16,1 km/h (3 Bft)
15.07.2018 17:18 22,8 C 63 % 1016,5 hPa 0,0 l/m 6,9 km/h (2 Bft) NW 315 3 min 545 W/m 15,4 C 22,6 C 12,9 km/h (3 Bft)
15.07.2018 17:21 22,7 C 64 % 1016,6 hPa 0,0 l/m 6,7 km/h (2 Bft) N 350 3 min 538 W/m 15,5 C 22,6 C 14,5 km/h (3 Bft)
15.07.2018 17:24 22,8 C 64 % 1016,6 hPa 0,0 l/m 8,3 km/h (2 Bft) N 351 3 min 529 W/m 15,6 C 22,2 C 19,3 km/h (3 Bft)
15.07.2018 17:27 22,7 C 65 % 1016,6 hPa 0,0 l/m 9,8 km/h (2 Bft) NW 311 3 min 526 W/m 15,8 C 21,7 C 17,7 km/h (3 Bft)
15.07.2018 17:30 22,6 C 65 % 1016,5 hPa 0,0 l/m 4,8 km/h (1 Bft) N-NO 16 3 min 515 W/m 15,7 C 22,6 C 11,3 km/h (2 Bft)
15.07.2018 17:33 22,7 C 63 % 1016,5 hPa 0,0 l/m 9,7 km/h (2 Bft) N-NW 334 3 min 510 W/m 15,3 C 21,7 C 17,7 km/h (3 Bft)
15.07.2018 17:36 22,6 C 62 % 1016,4 hPa 0,0 l/m 8,6 km/h (2 Bft) N-NW 344 3 min 503 W/m 14,9 C 21,9 C 17,7 km/h (3 Bft)
15.07.2018 17:39 22,6 C 64 % 1016,4 hPa 0,0 l/m 6,5 km/h (2 Bft) N-NW 340 3 min 497 W/m 15,4 C 22,6 C 14,5 km/h (3 Bft)
15.07.2018 17:42 22,7 C 64 % 1016,4 hPa 0,0 l/m 9,9 km/h (2 Bft) N 360 3 min 489 W/m 15,5 C 21,6 C 17,7 km/h (3 Bft)
15.07.2018 17:45 22,7 C 63 % 1016,4 hPa 0,0 l/m 11,7 km/h (2 Bft) N 350 3 min 483 W/m 15,3 C 21,2 C 17,7 km/h (3 Bft)
15.07.2018 17:48 22,8 C 63 % 1016,4 hPa 0,0 l/m 7,4 km/h (2 Bft) N 355 3 min 476 W/m 15,4 C 22,5 C 16,1 km/h (3 Bft)
15.07.2018 17:51 22,8 C 61 % 1016,3 hPa 0,0 l/m 9,7 km/h (2 Bft) N-NW 332 3 min 466 W/m 14,9 C 21,8 C 17,7 km/h (3 Bft)
15.07.2018 17:54 22,7 C 62 % 1016,3 hPa 0,0 l/m 11,0 km/h (2 Bft) N 360 3 min 461 W/m 15,0 C 21,4 C 20,9 km/h (4 Bft)
15.07.2018 17:57 22,6 C 63 % 1016,3 hPa 0,0 l/m 8,4 km/h (2 Bft) N 360 3 min 452 W/m 15,2 C 22,0 C 16,1 km/h (3 Bft)
15.07.2018 18:00 22,4 C 62 % 1016,2 hPa 0,0 l/m 6,7 km/h (2 Bft) N-NW 344 3 min 446 W/m 14,8 C 22,3 C 12,9 km/h (3 Bft)
15.07.2018 18:03 22,2 C 63 % 1016,2 hPa 0,0 l/m 5,4 km/h (2 Bft) NW 326 3 min 438 W/m 14,8 C 22,2 C 12,9 km/h (3 Bft)
15.07.2018 18:06 22,5 C 63 % 1016,1 hPa 0,0 l/m 8,4 km/h (2 Bft) NW 307 3 min 429 W/m 15,1 C 21,9 C 16,1 km/h (3 Bft)
15.07.2018 18:09 22,6 C 64 % 1016,1 hPa 0,0 l/m 4,8 km/h (1 Bft) N-NW 330 3 min 424 W/m 15,4 C 22,6 C 11,3 km/h (2 Bft)
15.07.2018 18:12 22,5 C 62 % 1016,1 hPa 0,0 l/m 5,9 km/h (2 Bft) NW 320 3 min 417 W/m 14,8 C 22,5 C 12,9 km/h (3 Bft)
15.07.2018 18:15 22,4 C 62 % 1016,1 hPa 0,0 l/m 5,8 km/h (2 Bft) NW 316 3 min 411 W/m 14,8 C 22,4 C 14,5 km/h (3 Bft)
15.07.2018 18:18 22,5 C 61 % 1016,0 hPa 0,0 l/m 8,7 km/h (2 Bft) N 350 3 min 403 W/m 14,6 C 21,8 C 20,9 km/h (4 Bft)
15.07.2018 18:21 22,4 C 61 % 1016,0 hPa 0,0 l/m 7,3 km/h (2 Bft) N 355 3 min 396 W/m 14,5 C 22,1 C 14,5 km/h (3 Bft)
15.07.2018 18:24 22,4 C 62 % 1015,9 hPa 0,0 l/m 8,3 km/h (2 Bft) N-NW 337 3 min 387 W/m 14,8 C 21,8 C 12,9 km/h (3 Bft)
15.07.2018 18:27 22,3 C 62 % 1015,9 hPa 0,0 l/m 9,1 km/h (2 Bft) N-NO 13 3 min 381 W/m 14,7 C 21,4 C 17,7 km/h (3 Bft)
15.07.2018 18:30 22,2 C 61 % 1015,9 hPa 0,0 l/m 6,6 km/h (2 Bft) N-NO 19 3 min 371 W/m 14,3 C 22,1 C 12,9 km/h (3 Bft)
15.07.2018 18:33 22,1 C 63 % 1015,9 hPa 0,0 l/m 8,6 km/h (2 Bft) N 10 3 min 364 W/m 14,7 C 21,4 C 14,5 km/h (3 Bft)
15.07.2018 18:36 22,2 C 63 % 1015,8 hPa 0,0 l/m 8,9 km/h (2 Bft) N-NW 348 3 min 357 W/m 14,8 C 21,4 C 17,7 km/h (3 Bft)
15.07.2018 18:39 22,2 C 64 % 1015,8 hPa 0,0 l/m 7,1 km/h (2 Bft) N 350 3 min 350 W/m 15,1 C 22,0 C 16,1 km/h (3 Bft)
15.07.2018 18:42 22,0 C 65 % 1015,8 hPa 0,0 l/m 5,8 km/h (2 Bft) N-NW 347 3 min 313 W/m 15,1 C 22,0 C 14,5 km/h (3 Bft)
15.07.2018 18:45 21,9 C 65 % 1015,8 hPa 0,0 l/m 10,4 km/h (2 Bft) N-NW 330 0 min 40 W/m 15,0 C 20,6 C 17,7 km/h (3 Bft)
15.07.2018 18:48 22,0 C 64 % 1015,8 hPa 0,0 l/m 7,4 km/h (2 Bft) N 351 0 min 40 W/m 14,9 C 21,7 C 16,1 km/h (3 Bft)
15.07.2018 18:51 21,9 C 65 % 1015,7 hPa 0,0 l/m 7,5 km/h (2 Bft) N 360 0 min 39 W/m 15,0 C 21,5 C 16,1 km/h (3 Bft)
15.07.2018 18:54 21,8 C 65 % 1015,8 hPa 0,0 l/m 9,7 km/h (2 Bft) N-NW 340 0 min 62 W/m 14,9 C 20,7 C 17,7 km/h (3 Bft)
15.07.2018 18:57 21,6 C 64 % 1015,8 hPa 0,0 l/m 9,1 km/h (2 Bft) N-NW 328 0 min 42 W/m 14,5 C 20,7 C 19,3 km/h (3 Bft)
15.07.2018 19:00 21,6 C 65 % 1015,7 hPa 0,0 l/m 6,3 km/h (2 Bft) NW 325 0 min 58 W/m 14,7 C 21,6 C 14,5 km/h (3 Bft)
15.07.2018 19:03 21,4 C 65 % 1015,7 hPa 0,0 l/m 6,1 km/h (2 Bft) N-NW 348 0 min 37 W/m 14,5 C 21,4 C 12,9 km/h (3 Bft)
15.07.2018 19:06 21,5 C 64 % 1015,7 hPa 0,0 l/m 9,1 km/h (2 Bft) N-NO 15 0 min 37 W/m 14,4 C 20,6 C 17,7 km/h (3 Bft)
15.07.2018 19:09 21,4 C 66 % 1015,7 hPa 0,0 l/m 9,9 km/h (2 Bft) N-NW 328 0 min 37 W/m 14,8 C 20,2 C 17,7 km/h (3 Bft)
15.07.2018 19:12 21,4 C 66 % 1015,7 hPa 0,0 l/m 8,7 km/h (2 Bft) N-NO 15 0 min 35 W/m 14,8 C 20,6 C 14,5 km/h (3 Bft)
15.07.2018 19:15 21,6 C 66 % 1015,7 hPa 0,0 l/m 8,9 km/h (2 Bft) N-NW 346 0 min 49 W/m 15,0 C 20,7 C 16,1 km/h (3 Bft)
15.07.2018 19:18 21,3 C 66 % 1015,7 hPa 0,0 l/m 5,1 km/h (1 Bft) N-NW 348 0 min 35 W/m 14,7 C 21,3 C 14,5 km/h (3 Bft)
15.07.2018 19:21 21,2 C 65 % 1015,7 hPa 0,0 l/m 6,8 km/h (2 Bft) N-NW 336 0 min 35 W/m 14,4 C 21,1 C 16,1 km/h (3 Bft)
15.07.2018 19:24 21,1 C 67 % 1015,7 hPa 0,0 l/m 10,0 km/h (2 Bft) N-NW 340 0 min 33 W/m 14,7 C 19,9 C 17,7 km/h (3 Bft)
15.07.2018 19:27 21,1 C 67 % 1015,7 hPa 0,0 l/m 9,7 km/h (2 Bft) NW 326 0 min 33 W/m 14,7 C 19,9 C 14,5 km/h (3 Bft)
15.07.2018 19:30 21,1 C 67 % 1015,6 hPa 0,0 l/m 8,2 km/h (2 Bft) N-NW 348 0 min 33 W/m 14,7 C 20,4 C 19,3 km/h (3 Bft)
15.07.2018 19:33 21,0 C 68 % 1015,6 hPa 0,0 l/m 7,2 km/h (2 Bft) N-NW 330 0 min 33 W/m 14,9 C 20,7 C 16,1 km/h (3 Bft)
15.07.2018 19:36 20,9 C 67 % 1015,6 hPa 0,0 l/m 7,2 km/h (2 Bft) NW 319 0 min 32 W/m 14,5 C 20,6 C 14,5 km/h (3 Bft)
15.07.2018 19:39 20,9 C 67 % 1015,6 hPa 0,0 l/m 7,4 km/h (2 Bft) N 350 0 min 32 W/m 14,5 C 20,5 C 16,1 km/h (3 Bft)
15.07.2018 19:42 20,7 C 67 % 1015,6 hPa 0,0 l/m 5,8 km/h (2 Bft) N-NW 335 0 min 32 W/m 14,3 C 20,7 C 12,9 km/h (3 Bft)
15.07.2018 19:45 20,6 C 68 % 1015,6 hPa 0,0 l/m 7,7 km/h (2 Bft) N-NW 344 0 min 32 W/m 14,5 C 20,1 C 16,1 km/h (3 Bft)
15.07.2018 19:48 20,6 C 68 % 1015,6 hPa 0,0 l/m 6,7 km/h (2 Bft) N 5 0 min 30 W/m 14,5 C 20,5 C 19,3 km/h (3 Bft)
15.07.2018 19:51 20,4 C 68 % 1015,5 hPa 0,0 l/m 8,1 km/h (2 Bft) N 5 0 min 30 W/m 14,3 C 19,7 C 16,1 km/h (3 Bft)
15.07.2018 19:54 20,4 C 68 % 1015,6 hPa 0,0 l/m 8,1 km/h (2 Bft) N-NW 327 0 min 30 W/m 14,3 C 19,7 C 16,1 km/h (3 Bft)
15.07.2018 19:57 20,3 C 68 % 1015,6 hPa 0,0 l/m 5,8 km/h (2 Bft) N-NW 331 0 min 30 W/m 14,2 C 20,3 C 17,7 km/h (3 Bft)
15.07.2018 20:00 20,3 C 70 % 1015,6 hPa 0,0 l/m 5,6 km/h (2 Bft) N-NW 347 0 min 28 W/m 14,6 C 20,3 C 16,1 km/h (3 Bft)
15.07.2018 20:03 20,2 C 70 % 1015,6 hPa 0,0 l/m 6,0 km/h (2 Bft) N-NO 17 0 min 28 W/m 14,5 C 20,2 C 14,5 km/h (3 Bft)
15.07.2018 20:06 20,2 C 69 % 1015,6 hPa 0,0 l/m 5,5 km/h (2 Bft) N 360 0 min 28 W/m 14,3 C 20,2 C 14,5 km/h (3 Bft)
15.07.2018 20:09 20,2 C 70 % 1015,6 hPa 0,0 l/m 6,4 km/h (2 Bft) N-NW 333 0 min 26 W/m 14,5 C 20,2 C 17,7 km/h (3 Bft)
15.07.2018 20:12 20,3 C 70 % 1015,6 hPa 0,0 l/m 5,2 km/h (1 Bft) N 5 0 min 26 W/m 14,6 C 20,3 C 17,7 km/h (3 Bft)
15.07.2018 20:15 20,1 C 70 % 1015,6 hPa 0,0 l/m 7,5 km/h (2 Bft) N-NW 346 0 min 26 W/m 14,5 C 19,7 C 17,7 km/h (3 Bft)
15.07.2018 20:18 20,1 C 70 % 1015,6 hPa 0,0 l/m 4,7 km/h (1 Bft) N-NW 331 0 min 25 W/m 14,5 C 20,1 C 8,0 km/h (2 Bft)
15.07.2018 20:21 20,1 C 70 % 1015,6 hPa 0,0 l/m 5,8 km/h (2 Bft) N 355 0 min 25 W/m 14,5 C 20,1 C 12,9 km/h (3 Bft)
15.07.2018 20:24 20,1 C 70 % 1015,7 hPa 0,0 l/m 5,3 km/h (1 Bft) N-NW 340 0 min 25 W/m 14,5 C 20,1 C 12,9 km/h (3 Bft)
15.07.2018 20:27 20,0 C 70 % 1015,6 hPa 0,0 l/m 6,3 km/h (2 Bft) N 349 0 min 23 W/m 14,4 C 20,0 C 12,9 km/h (3 Bft)
15.07.2018 20:30 19,9 C 69 % 1015,6 hPa 0,0 l/m 5,1 km/h (1 Bft) N-NW 345 0 min 23 W/m 14,0 C 19,9 C 12,9 km/h (3 Bft)
15.07.2018 20:33 19,9 C 70 % 1015,7 hPa 0,0 l/m 5,8 km/h (2 Bft) N-NW 340 0 min 21 W/m 14,3 C 19,9 C 14,5 km/h (3 Bft)
15.07.2018 20:36 19,8 C 72 % 1015,7 hPa 0,0 l/m 4,5 km/h (1 Bft) N-NW 337 0 min 21 W/m 14,6 C 19,8 C 11,3 km/h (2 Bft)
15.07.2018 20:39 19,8 C 72 % 1015,6 hPa 0,0 l/m 5,3 km/h (1 Bft) N 355 0 min 21 W/m 14,6 C 19,8 C 12,9 km/h (3 Bft)
15.07.2018 20:42 19,8 C 73 % 1015,6 hPa 0,0 l/m 6,3 km/h (2 Bft) N-NW 338 0 min 19 W/m 14,8 C 19,8 C 14,5 km/h (3 Bft)
15.07.2018 20:45 19,7 C 73 % 1015,6 hPa 0,0 l/m 4,4 km/h (1 Bft) N 355 0 min 19 W/m 14,7 C 19,7 C 9,7 km/h (2 Bft)
15.07.2018 20:48 19,6 C 74 % 1015,7 hPa 0,0 l/m 4,5 km/h (1 Bft) N 355 0 min 19 W/m 14,8 C 19,6 C 12,9 km/h (3 Bft)
15.07.2018 20:51 19,6 C 73 % 1015,7 hPa 0,0 l/m 4,9 km/h (1 Bft) N 5 0 min 18 W/m 14,6 C 19,6 C 9,7 km/h (2 Bft)
15.07.2018 20:54 19,6 C 74 % 1015,7 hPa 0,0 l/m 4,6 km/h (1 Bft) NW 319 0 min 18 W/m 14,8 C 19,6 C 9,7 km/h (2 Bft)
15.07.2018 20:57 19,4 C 74 % 1015,7 hPa 0,0 l/m 4,5 km/h (1 Bft) N 350 0 min 16 W/m 14,6 C 19,4 C 9,7 km/h (2 Bft)
15.07.2018 21:00 19,4 C 74 % 1015,7 hPa 0,0 l/m 4,5 km/h (1 Bft) N-NW 331 0 min 16 W/m 14,6 C 19,4 C 9,7 km/h (2 Bft)
15.07.2018 21:03 19,3 C 74 % 1015,6 hPa 0,0 l/m 5,3 km/h (1 Bft) N 360 0 min 14 W/m 14,5 C 19,3 C 9,7 km/h (2 Bft)
15.07.2018 21:06 19,3 C 75 % 1015,7 hPa 0,0 l/m 4,8 km/h (1 Bft) N-NW 333 0 min 14 W/m 14,8 C 19,3 C 12,9 km/h (3 Bft)
15.07.2018 21:09 19,3 C 75 % 1015,7 hPa 0,0 l/m 4,0 km/h (1 Bft) N 360 0 min 12 W/m 14,8 C 19,3 C 8,0 km/h (2 Bft)
15.07.2018 21:12 19,2 C 76 % 1015,7 hPa 0,0 l/m 3,5 km/h (1 Bft) N-NW 328 0 min 12 W/m 14,9 C 19,2 C 12,9 km/h (3 Bft)
15.07.2018 21:15 19,2 C 76 % 1015,7 hPa 0,0 l/m 4,1 km/h (1 Bft) N 355 0 min 11 W/m 14,9 C 19,2 C 6,4 km/h (2 Bft)
15.07.2018 21:18 19,1 C 76 % 1015,7 hPa 0,0 l/m 4,2 km/h (1 Bft) N 351 0 min 11 W/m 14,8 C 19,1 C 9,7 km/h (2 Bft)
15.07.2018 21:21 19,0 C 76 % 1015,7 hPa 0,0 l/m 4,1 km/h (1 Bft) N 355 0 min 11 W/m 14,7 C 19,0 C 8,0 km/h (2 Bft)
15.07.2018 21:24 19,0 C 77 % 1015,7 hPa 0,0 l/m 3,9 km/h (1 Bft) N 350 0 min 9 W/m 14,9 C 19,0 C 9,7 km/h (2 Bft)
15.07.2018 21:27 19,0 C 78 % 1015,8 hPa 0,0 l/m 4,5 km/h (1 Bft) N-NW 340 0 min 7 W/m 15,1 C 19,0 C 9,7 km/h (2 Bft)
15.07.2018 21:30 18,9 C 78 % 1015,7 hPa 0,0 l/m 3,6 km/h (1 Bft) N-NO 32 0 min 7 W/m 15,0 C 18,9 C 8,0 km/h (2 Bft)
15.07.2018 21:33 18,8 C 78 % 1015,7 hPa 0,0 l/m 3,6 km/h (1 Bft) N-NO 13 0 min 7 W/m 14,9 C 18,8 C 6,4 km/h (2 Bft)
15.07.2018 21:36 18,8 C 79 % 1015,8 hPa 0,0 l/m 4,8 km/h (1 Bft) N 351 0 min 5 W/m 15,1 C 18,8 C 12,9 km/h (3 Bft)
15.07.2018 21:39 18,8 C 79 % 1015,8 hPa 0,0 l/m 5,3 km/h (1 Bft) N-NO 16 0 min 5 W/m 15,1 C 18,8 C 12,9 km/h (3 Bft)
15.07.2018 21:42 18,8 C 79 % 1015,9 hPa 0,0 l/m 3,1 km/h (1 Bft) N-NW 345 0 min 5 W/m 15,1 C 18,8 C 8,0 km/h (2 Bft)
15.07.2018 21:45 18,8 C 79 % 1015,9 hPa 0,0 l/m 4,1 km/h (1 Bft) N 355 0 min 0 W/m 15,1 C 18,8 C 12,9 km/h (3 Bft)
15.07.2018 21:48 18,8 C 80 % 1015,9 hPa 0,0 l/m 4,4 km/h (1 Bft) N 351 0 min 0 W/m 15,3 C 18,8 C 9,7 km/h (2 Bft)
15.07.2018 21:51 18,8 C 80 % 1015,9 hPa 0,0 l/m 5,7 km/h (2 Bft) N 360 0 min 0 W/m 15,3 C 18,8 C 12,9 km/h (3 Bft)
15.07.2018 21:54 18,8 C 81 % 1015,9 hPa 0,0 l/m 4,9 km/h (1 Bft) N-NW 344 0 min 0 W/m 15,5 C 18,8 C 12,9 km/h (3 Bft)
15.07.2018 21:57 18,7 C 81 % 1015,9 hPa 0,0 l/m 2,8 km/h (1 Bft) N 355 0 min 0 W/m 15,4 C 18,7 C 6,4 km/h (2 Bft)
15.07.2018 22:00 18,7 C 81 % 1015,9 hPa 0,0 l/m 4,1 km/h (1 Bft) N 350 0 min 0 W/m 15,4 C 18,7 C 9,7 km/h (2 Bft)
15.07.2018 22:03 18,6 C 81 % 1015,9 hPa 0,0 l/m 3,9 km/h (1 Bft) N-NW 338 0 min 0 W/m 15,3 C 18,6 C 9,7 km/h (2 Bft)
15.07.2018 22:06 18,4 C 81 % 1015,9 hPa 0,0 l/m 3,2 km/h (1 Bft) N 355 0 min 0 W/m 15,1 C 18,4 C 9,7 km/h (2 Bft)
15.07.2018 22:09 18,3 C 80 % 1015,9 hPa 0,0 l/m 2,6 km/h (1 Bft) N 9 0 min 0 W/m 14,8 C 18,3 C 6,4 km/h (2 Bft)
15.07.2018 22:12 18,3 C 79 % 1015,9 hPa 0,0 l/m 3,6 km/h (1 Bft) N 360 0 min 0 W/m 14,6 C 18,3 C 12,9 km/h (3 Bft)
15.07.2018 22:15 18,2 C 79 % 1015,9 hPa 0,0 l/m 3,7 km/h (1 Bft) N 355 0 min 0 W/m 14,5 C 18,2 C 6,4 km/h (2 Bft)
15.07.2018 22:18 18,1 C 79 % 1015,9 hPa 0,0 l/m 4,2 km/h (1 Bft) N 360 0 min 0 W/m 14,4 C 18,1 C 8,0 km/h (2 Bft)
15.07.2018 22:21 18,1 C 79 % 1015,9 hPa 0,0 l/m 2,9 km/h (1 Bft) N 360 0 min 0 W/m 14,4 C 18,1 C 6,4 km/h (2 Bft)
15.07.2018 22:24 18,2 C 79 % 1015,9 hPa 0,0 l/m 3,1 km/h (1 Bft) N-NW 338 0 min 0 W/m 14,5 C 18,2 C 8,0 km/h (2 Bft)
15.07.2018 22:27 18,1 C 79 % 1015,9 hPa 0,0 l/m 4,1 km/h (1 Bft) N-NW 344 0 min 0 W/m 14,4 C 18,1 C 8,0 km/h (2 Bft)
15.07.2018 22:30 18,1 C 79 % 1015,8 hPa 0,0 l/m 3,2 km/h (1 Bft) N 11 0 min 0 W/m 14,4 C 18,1 C 8,0 km/h (2 Bft)
15.07.2018 22:33 18,1 C 79 % 1015,8 hPa 0,0 l/m 3,2 km/h (1 Bft) N-NO 25 0 min 0 W/m 14,4 C 18,1 C 8,0 km/h (2 Bft)
15.07.2018 22:36 18,0 C 79 % 1015,8 hPa 0,0 l/m 3,3 km/h (1 Bft) N 355 0 min 0 W/m 14,3 C 18,0 C 8,0 km/h (2 Bft)
15.07.2018 22:39 17,9 C 79 % 1015,8 hPa 0,0 l/m 2,8 km/h (1 Bft) N 355 0 min 0 W/m 14,2 C 17,9 C 4,8 km/h (1 Bft)
15.07.2018 22:42 17,9 C 79 % 1015,8 hPa 0,0 l/m 3,7 km/h (1 Bft) N 355 0 min 0 W/m 14,2 C 17,9 C 6,4 km/h (2 Bft)
15.07.2018 22:45 17,8 C 80 % 1015,9 hPa 0,0 l/m 2,9 km/h (1 Bft) N 355 0 min 0 W/m 14,3 C 17,8 C 4,8 km/h (1 Bft)
15.07.2018 22:48 17,8 C 80 % 1015,9 hPa 0,0 l/m 2,2 km/h (1 Bft) N 355 0 min 0 W/m 14,3 C 17,8 C 4,8 km/h (1 Bft)
15.07.2018 22:51 17,8 C 81 % 1015,9 hPa 0,0 l/m 1,7 km/h (1 Bft) N 355 0 min 0 W/m 14,5 C 17,8 C 6,4 km/h (2 Bft)
15.07.2018 22:54 17,7 C 81 % 1015,9 hPa 0,0 l/m 2,7 km/h (1 Bft) N 355 0 min 0 W/m 14,4 C 17,7 C 6,4 km/h (2 Bft)
15.07.2018 22:57 17,7 C 81 % 1015,9 hPa 0,0 l/m 2,3 km/h (1 Bft) N 355 0 min 0 W/m 14,4 C 17,7 C 4,8 km/h (1 Bft)
15.07.2018 23:00 17,7 C 82 % 1015,9 hPa 0,0 l/m 2,9 km/h (1 Bft) N-NW 346 0 min 0 W/m 14,6 C 17,7 C 8,0 km/h (2 Bft)
15.07.2018 23:03 17,7 C 82 % 1015,9 hPa 0,0 l/m 2,3 km/h (1 Bft) N-NW 347 0 min 0 W/m 14,6 C 17,7 C 6,4 km/h (2 Bft)
15.07.2018 23:06 17,7 C 82 % 1015,9 hPa 0,0 l/m 1,8 km/h (1 Bft) N-NW 346 0 min 0 W/m 14,6 C 17,7 C 6,4 km/h (2 Bft)
15.07.2018 23:09 17,6 C 82 % 1015,9 hPa 0,0 l/m 2,6 km/h (1 Bft) N-NW 346 0 min 0 W/m 14,5 C 17,6 C 4,8 km/h (1 Bft)
15.07.2018 23:12 17,6 C 83 % 1015,9 hPa 0,0 l/m 3,8 km/h (1 Bft) N-NW 344 0 min 0 W/m 14,7 C 17,6 C 9,7 km/h (2 Bft)
15.07.2018 23:15 17,4 C 83 % 1015,9 hPa 0,0 l/m 1,9 km/h (1 Bft) N-NW 344 0 min 0 W/m 14,5 C 17,4 C 6,4 km/h (2 Bft)
15.07.2018 23:18 17,4 C 83 % 1015,9 hPa 0,0 l/m 3,1 km/h (1 Bft) N 351 0 min 0 W/m 14,5 C 17,4 C 6,4 km/h (2 Bft)
15.07.2018 23:21 17,4 C 83 % 1016,0 hPa 0,0 l/m 2,7 km/h (1 Bft) N 351 0 min 0 W/m 14,5 C 17,4 C 6,4 km/h (2 Bft)
15.07.2018 23:24 17,3 C 83 % 1016,0 hPa 0,0 l/m 1,0 km/h (0 Bft) N 351 0 min 0 W/m 14,4 C 17,3 C 3,2 km/h (1 Bft)
15.07.2018 23:27 17,2 C 83 % 1016,0 hPa 0,0 l/m 2,8 km/h (1 Bft) N 350 0 min 0 W/m 14,3 C 17,2 C 6,4 km/h (2 Bft)
15.07.2018 23:30 17,2 C 84 % 1016,0 hPa 0,0 l/m 1,3 km/h (1 Bft) N 350 0 min 0 W/m 14,5 C 17,2 C 3,2 km/h (1 Bft)
15.07.2018 23:33 17,2 C 84 % 1016,0 hPa 0,0 l/m 1,9 km/h (1 Bft) N 350 0 min 0 W/m 14,5 C 17,2 C 4,8 km/h (1 Bft)
15.07.2018 23:36 17,1 C 84 % 1015,9 hPa 0,0 l/m 1,0 km/h (0 Bft) N 350 0 min 0 W/m 14,4 C 17,1 C 3,2 km/h (1 Bft)
15.07.2018 23:39 17,1 C 84 % 1016,0 hPa 0,0 l/m 1,2 km/h (1 Bft) N 350 0 min 0 W/m 14,4 C 17,1 C 4,8 km/h (1 Bft)
15.07.2018 23:42 17,0 C 84 % 1016,0 hPa 0,0 l/m 2,0 km/h (1 Bft) N-NO 30 0 min 0 W/m 14,3 C 17,0 C 4,8 km/h (1 Bft)
15.07.2018 23:45 17,0 C 85 % 1016,0 hPa 0,0 l/m 1,9 km/h (1 Bft) N 355 0 min 0 W/m 14,5 C 17,0 C 4,8 km/h (1 Bft)
15.07.2018 23:48 17,0 C 85 % 1016,1 hPa 0,0 l/m 2,6 km/h (1 Bft) N-NW 334 0 min 0 W/m 14,5 C 17,0 C 11,3 km/h (2 Bft)
15.07.2018 23:51 17,0 C 85 % 1016,1 hPa 0,0 l/m 2,6 km/h (1 Bft) W 277 0 min 0 W/m 14,5 C 17,0 C 6,4 km/h (2 Bft)
15.07.2018 23:54 16,9 C 85 % 1016,1 hPa 0,0 l/m 1,0 km/h (0 Bft) N-NW 339 0 min 0 W/m 14,4 C 16,9 C 4,8 km/h (1 Bft)
15.07.2018 23:57 17,0 C 85 % 1016,1 hPa 0,0 l/m 2,7 km/h (1 Bft) NW 319 0 min 0 W/m 14,5 C 17,0 C 6,4 km/h (2 Bft)
_ Min-Zeit 05:27 17:51 19:51 - 02:30 - - - - 05:27 05:27 02:30
Minimum _ 10,4 C 61 % 1015,5 hPa - 0,0 km/h (0 Bft) - - - - 9,3 C 10,4 C 0,0 km/h (0 Bft)
_ Max-Zeit 16:51 06:39 00:00 00:00 16:06 - - 08:30 13:30 13:54 17:09 17:54
Maximum _ 23,1 C 95 % 1018,5 hPa 0,0 l/m 14,3 km/h
NW (3 Bft)
- - 3 min 828 W/m 16,5 C 22,9 C 20,9 km/h
N-NW (4 Bft)
Durchschnitt _ 18,0 C 78 % 1017,3 hPa #0,0 l/m 4,3 km/h (1 Bft) N-NW - #10:15 h 407 W/m 14,0 C 17,8 C 8,9 km/h (2 Bft)
2018 Cux-Wetter.de -Die Nutzung der Wetterdaten nur mit ausdrcklicher Genehmigung